Wetterdaten: Donnerstag, 19.01.2023
Datum Zeit Temp. Aussen Temp. o. S. Temp +5cm Feuchte Auss Luftdruck Regen Sonnenschein Regendauer Solar Windben Empfang
19.01.2023 00:00 1,3 C 0,6 C -2,2 C 91 % 1002,3 hPa 0,0 l/m 0 min 0 min 0 W/m 19,3 km/h (3 Bft) 100,00 %
19.01.2023 00:02 1,3 C 0,6 C -2,2 C 91 % 1002,3 hPa 0,0 l/m 0 min 0 min 0 W/m 22,5 km/h (4 Bft) 96,97 %
19.01.2023 00:04 1,3 C 0,6 C -2,2 C 91 % 1002,2 hPa 0,0 l/m 0 min 0 min 0 W/m 32,2 km/h (5 Bft) 95,65 %
19.01.2023 00:07 1,3 C 0,6 C -2,2 C 91 % 1002,2 hPa 0,0 l/m 0 min 0 min 0 W/m 22,5 km/h (4 Bft) 92,86 %
19.01.2023 00:08 1,3 C 0,6 C -2,2 C 91 % 1002,2 hPa 0,0 l/m 0 min 0 min 0 W/m 12,9 km/h (3 Bft) 100,00 %
19.01.2023 00:12 1,3 C 0,6 C -2,2 C 91 % 1002,3 hPa 0,0 l/m 0 min 0 min 0 W/m 25,7 km/h (4 Bft) 95,65 %
19.01.2023 00:14 1,3 C 0,6 C -2,2 C 91 % 1002,4 hPa 0,0 l/m 0 min 0 min 0 W/m 25,7 km/h (4 Bft) 100,00 %
19.01.2023 00:16 1,3 C 0,6 C -2,2 C 91 % 1002,4 hPa 0,0 l/m 0 min 0 min 0 W/m 19,3 km/h (3 Bft) 97,87 %
19.01.2023 00:18 1,3 C 0,6 C -2,2 C 91 % 1002,4 hPa 0,0 l/m 0 min 0 min 0 W/m 22,5 km/h (4 Bft) 100,00 %
19.01.2023 00:20 1,3 C 0,6 C -2,2 C 91 % 1002,4 hPa 0,0 l/m 0 min 0 min 0 W/m 22,5 km/h (4 Bft) 95,74 %
19.01.2023 00:22 1,3 C 0,6 C -2,2 C 91 % 1002,4 hPa 0,0 l/m 0 min 0 min 0 W/m 19,3 km/h (3 Bft) 100,00 %
19.01.2023 00:24 1,3 C 0,6 C -2,2 C 91 % 1002,4 hPa 0,0 l/m 0 min 0 min 0 W/m 19,3 km/h (3 Bft) 97,83 %
19.01.2023 00:26 1,2 C 0,6 C -2,2 C 91 % 1002,5 hPa 0,0 l/m 0 min 0 min 0 W/m 12,9 km/h (3 Bft) 100,00 %
19.01.2023 00:28 1,2 C 0,6 C -2,2 C 91 % 1002,4 hPa 0,0 l/m 0 min 0 min 0 W/m 12,9 km/h (3 Bft) 100,00 %
19.01.2023 00:30 1,2 C 0,6 C -2,2 C 91 % 1002,5 hPa 0,0 l/m 0 min 0 min 0 W/m 12,9 km/h (3 Bft) 100,00 %
19.01.2023 00:32 1,2 C 0,6 C -2,2 C 91 % 1002,5 hPa 0,0 l/m 0 min 0 min 0 W/m 19,3 km/h (3 Bft) 97,87 %
19.01.2023 00:34 1,2 C 0,6 C -2,2 C 91 % 1002,5 hPa 0,0 l/m 0 min 0 min 0 W/m 19,3 km/h (3 Bft) 100,00 %
19.01.2023 00:36 1,2 C 0,6 C -2,2 C 91 % 1002,5 hPa 0,0 l/m 0 min 0 min 0 W/m 16,1 km/h (3 Bft) 95,65 %
19.01.2023 00:38 1,2 C 0,6 C -2,2 C 91 % 1002,5 hPa 0,0 l/m 0 min 0 min 0 W/m 12,9 km/h (3 Bft) 95,74 %
19.01.2023 00:40 1,2 C 0,6 C -2,2 C 91 % 1002,5 hPa 0,0 l/m 0 min 0 min 0 W/m 19,3 km/h (3 Bft) 97,87 %
19.01.2023 00:42 1,2 C 0,6 C -2,2 C 91 % 1002,5 hPa 0,0 l/m 0 min 0 min 0 W/m 16,1 km/h (3 Bft) 97,87 %
19.01.2023 00:44 1,2 C 0,6 C -2,2 C 91 % 1002,5 hPa 0,0 l/m 0 min 0 min 0 W/m 22,5 km/h (4 Bft) 97,87 %
19.01.2023 00:46 1,2 C 0,6 C -2,2 C 91 % 1002,4 hPa 0,0 l/m 0 min 0 min 0 W/m 22,5 km/h (4 Bft) 97,87 %
19.01.2023 00:48 1,2 C 0,6 C -2,2 C 91 % 1002,4 hPa 0,0 l/m 0 min 0 min 0 W/m 12,9 km/h (3 Bft) 97,83 %
19.01.2023 00:50 1,2 C 0,6 C -2,2 C 92 % 1002,5 hPa 0,0 l/m 0 min 0 min 0 W/m 19,3 km/h (3 Bft) 97,87 %
19.01.2023 00:52 1,2 C 0,6 C -2,2 C 92 % 1002,5 hPa 0,0 l/m 0 min 0 min 0 W/m 22,5 km/h (4 Bft) 93,62 %
19.01.2023 00:54 1,1 C 0,6 C -2,2 C 92 % 1002,4 hPa 0,0 l/m 0 min 0 min 0 W/m 19,3 km/h (3 Bft) 95,74 %
19.01.2023 00:56 1,2 C 0,6 C -2,2 C 92 % 1002,6 hPa 0,0 l/m 0 min 0 min 0 W/m 22,5 km/h (4 Bft) 59,57 %
19.01.2023 00:58 1,2 C 0,6 C -2,2 C 92 % 1002,7 hPa 0,0 l/m 0 min 0 min 0 W/m 22,5 km/h (4 Bft) 91,11 %
19.01.2023 01:00 1,2 C 0,6 C -2,2 C 92 % 1002,4 hPa 0,0 l/m 0 min 0 min 0 W/m 19,3 km/h (3 Bft) 97,83 %
19.01.2023 01:02 1,2 C 0,6 C -2,2 C 92 % 1002,5 hPa 0,0 l/m 0 min 0 min 0 W/m 25,7 km/h (4 Bft) 93,62 %
19.01.2023 01:04 1,2 C 0,6 C -2,2 C 92 % 1002,7 hPa 0,0 l/m 0 min 0 min 0 W/m 19,3 km/h (3 Bft) 97,87 %
19.01.2023 01:06 1,2 C 0,6 C -2,2 C 92 % 1002,5 hPa 0,0 l/m 0 min 0 min 0 W/m 25,7 km/h (4 Bft) 95,74 %
19.01.2023 01:08 1,2 C 0,6 C -2,2 C 92 % 1002,4 hPa 0,0 l/m 0 min 0 min 0 W/m 19,3 km/h (3 Bft) 93,62 %
19.01.2023 01:10 1,2 C 0,6 C -2,2 C 92 % 1002,5 hPa 0,0 l/m 0 min 0 min 0 W/m 19,3 km/h (3 Bft) 93,62 %
19.01.2023 01:12 1,2 C 0,6 C -2,2 C 92 % 1002,5 hPa 0,0 l/m 0 min 0 min 0 W/m 25,7 km/h (4 Bft) 93,62 %
19.01.2023 01:14 1,2 C 0,6 C -2,2 C 92 % 1002,5 hPa 0,0 l/m 0 min 0 min 0 W/m 19,3 km/h (3 Bft) 91,30 %
19.01.2023 01:16 1,2 C 0,6 C -2,2 C 92 % 1002,5 hPa 0,0 l/m 0 min 0 min 0 W/m 22,5 km/h (4 Bft) 93,62 %
19.01.2023 01:18 1,2 C 0,6 C -2,2 C 92 % 1002,5 hPa 0,0 l/m 0 min 0 min 0 W/m 22,5 km/h (4 Bft) 93,62 %
19.01.2023 01:20 1,2 C 0,6 C -2,2 C 92 % 1002,5 hPa 0,0 l/m 0 min 0 min 0 W/m 22,5 km/h (4 Bft) 95,74 %
19.01.2023 01:22 1,2 C 0,6 C -2,2 C 92 % 1002,5 hPa 0,0 l/m 0 min 0 min 0 W/m 32,2 km/h (5 Bft) 93,62 %
19.01.2023 01:24 1,2 C 0,6 C -2,2 C 92 % 1002,5 hPa 0,0 l/m 0 min 0 min 0 W/m 25,7 km/h (4 Bft) 93,62 %
19.01.2023 01:26 1,2 C 0,6 C -2,2 C 92 % 1002,5 hPa 0,0 l/m 0 min 0 min 0 W/m 22,5 km/h (4 Bft) 93,62 %
19.01.2023 01:28 1,2 C 0,6 C -2,2 C 92 % 1002,6 hPa 0,0 l/m 0 min 0 min 0 W/m 22,5 km/h (4 Bft) 93,48 %
19.01.2023 01:30 1,2 C 0,6 C -2,2 C 92 % 1002,7 hPa 0,0 l/m 0 min 0 min 0 W/m 16,1 km/h (3 Bft) 95,74 %
19.01.2023 01:32 1,2 C 0,6 C -2,2 C 92 % 1002,7 hPa 0,0 l/m 0 min 0 min 0 W/m 29,0 km/h (5 Bft) 93,62 %
19.01.2023 01:34 1,2 C 0,6 C -2,2 C 92 % 1002,7 hPa 0,0 l/m 0 min 0 min 0 W/m 22,5 km/h (4 Bft) 91,49 %
19.01.2023 01:36 1,2 C 0,6 C -2,2 C 92 % 1002,7 hPa 0,0 l/m 0 min 0 min 0 W/m 19,3 km/h (3 Bft) 93,62 %
19.01.2023 01:38 1,2 C 0,6 C -2,2 C 92 % 1002,6 hPa 0,0 l/m 0 min 0 min 0 W/m 32,2 km/h (5 Bft) 95,74 %
19.01.2023 01:40 1,2 C 0,6 C -2,2 C 92 % 1002,6 hPa 0,0 l/m 0 min 0 min 0 W/m 19,3 km/h (3 Bft) 95,65 %
19.01.2023 01:42 1,2 C 0,6 C -2,2 C 92 % 1002,6 hPa 0,0 l/m 0 min 0 min 0 W/m 12,9 km/h (3 Bft) 72,34 %
19.01.2023 01:44 1,2 C 0,6 C -2,2 C 92 % 1002,6 hPa 0,0 l/m 0 min 0 min 0 W/m 16,1 km/h (3 Bft) 10,00 %
19.01.2023 01:46 1,2 C 0,6 C -2,2 C 92 % 1002,6 hPa 0,0 l/m 0 min 0 min 0 W/m 29,0 km/h (5 Bft) 95,74 %
19.01.2023 01:48 1,2 C 0,6 C -2,2 C 92 % 1002,7 hPa 0,0 l/m 0 min 0 min 0 W/m 25,7 km/h (4 Bft) 97,87 %
19.01.2023 01:50 1,2 C 0,6 C -2,2 C 92 % 1002,6 hPa 0,0 l/m 0 min 0 min 0 W/m 25,7 km/h (4 Bft) 97,87 %
19.01.2023 01:52 1,2 C 0,6 C -2,2 C 92 % 1002,6 hPa 0,0 l/m 0 min 0 min 0 W/m 25,7 km/h (4 Bft) 97,87 %
19.01.2023 01:54 1,2 C 0,6 C -2,2 C 92 % 1002,5 hPa 0,0 l/m 0 min 0 min 0 W/m 22,5 km/h (4 Bft) 100,00 %
19.01.2023 01:56 1,2 C 0,6 C -2,2 C 92 % 1002,6 hPa 0,0 l/m 0 min 0 min 0 W/m 25,7 km/h (4 Bft) 100,00 %
19.01.2023 01:58 1,2 C 0,6 C -2,2 C 92 % 1002,6 hPa 0,0 l/m 0 min 0 min 0 W/m 22,5 km/h (4 Bft) 100,00 %
19.01.2023 02:00 1,1 C 0,6 C -2,2 C 92 % 1002,5 hPa 0,0 l/m 0 min 0 min 0 W/m 25,7 km/h (4 Bft) 97,87 %
19.01.2023 02:02 1,1 C 0,6 C -2,2 C 92 % 1002,5 hPa 0,0 l/m 0 min 0 min 0 W/m 16,1 km/h (3 Bft) 100,00 %
19.01.2023 02:04 1,1 C 0,6 C -2,2 C 92 % 1002,5 hPa 0,0 l/m 0 min 0 min 0 W/m 16,1 km/h (3 Bft) 100,00 %
19.01.2023 02:06 1,1 C 0,6 C -2,2 C 92 % 1002,6 hPa 0,0 l/m 0 min 0 min 0 W/m 25,7 km/h (4 Bft) 97,87 %
19.01.2023 02:08 1,1 C 0,6 C -2,2 C 92 % 1002,6 hPa 0,0 l/m 0 min 0 min 0 W/m 19,3 km/h (3 Bft) 97,87 %
19.01.2023 02:10 1,1 C 0,6 C -2,2 C 92 % 1002,6 hPa 0,0 l/m 0 min 0 min 0 W/m 22,5 km/h (4 Bft) 100,00 %
19.01.2023 02:17 1,1 C 0,6 C -2,2 C 92 % 1002,7 hPa 0,0 l/m 0 min 0 min 0 W/m 19,3 km/h (3 Bft) 96,10 %
19.01.2023 02:18 1,1 C 0,6 C -2,2 C 92 % 1002,7 hPa 0,0 l/m 0 min 0 min 0 W/m 12,9 km/h (3 Bft) 100,00 %
19.01.2023 02:20 1,1 C 0,6 C -2,2 C 92 % 1002,6 hPa 0,0 l/m 0 min 0 min 0 W/m 22,5 km/h (4 Bft) 100,00 %
19.01.2023 02:22 1,1 C 0,6 C -2,2 C 92 % 1002,8 hPa 0,0 l/m 0 min 0 min 0 W/m 16,1 km/h (3 Bft) 97,87 %
19.01.2023 02:24 1,1 C 0,6 C -2,2 C 92 % 1002,7 hPa 0,0 l/m 0 min 0 min 0 W/m 22,5 km/h (4 Bft) 100,00 %
19.01.2023 02:26 1,1 C 0,6 C -2,2 C 92 % 1002,7 hPa 0,0 l/m 0 min 0 min 0 W/m 22,5 km/h (4 Bft) 100,00 %
19.01.2023 02:28 1,1 C 0,6 C -2,2 C 92 % 1002,7 hPa 0,0 l/m 0 min 0 min 0 W/m 16,1 km/h (3 Bft) 98,21 %
19.01.2023 02:30 1,1 C 0,6 C -2,2 C 92 % 1002,7 hPa 0,0 l/m 0 min 0 min 0 W/m 12,9 km/h (3 Bft) 100,00 %
19.01.2023 02:32 1,1 C 0,6 C -2,2 C 92 % 1002,7 hPa 0,0 l/m 0 min 0 min 0 W/m 25,7 km/h (4 Bft) 100,00 %
19.01.2023 02:34 1,1 C 0,6 C -2,2 C 92 % 1002,7 hPa 0,0 l/m 0 min 0 min 0 W/m 16,1 km/h (3 Bft) 100,00 %
19.01.2023 02:36 1,1 C 0,6 C -2,2 C 92 % 1002,8 hPa 0,0 l/m 0 min 0 min 0 W/m 16,1 km/h (3 Bft) 100,00 %
19.01.2023 02:38 1,1 C 0,6 C -2,2 C 92 % 1002,7 hPa 0,0 l/m 0 min 0 min 0 W/m 12,9 km/h (3 Bft) 97,87 %
19.01.2023 02:40 1,1 C 0,6 C -2,2 C 92 % 1002,7 hPa 0,0 l/m 0 min 0 min 0 W/m 9,7 km/h (2 Bft) 95,65 %
19.01.2023 02:42 1,1 C 0,0 C -2,2 C 92 % 1002,8 hPa 0,0 l/m 0 min 0 min 0 W/m 12,9 km/h (3 Bft) 100,00 %
19.01.2023 02:44 1,1 C 0,0 C -2,2 C 92 % 1002,8 hPa 0,0 l/m 0 min 0 min 0 W/m 19,3 km/h (3 Bft) 100,00 %
19.01.2023 02:46 1,1 C 0,6 C -2,2 C 92 % 1002,8 hPa 0,0 l/m 0 min 0 min 0 W/m 16,1 km/h (3 Bft) 100,00 %
19.01.2023 02:48 1,1 C 0,6 C -2,2 C 92 % 1002,9 hPa 0,0 l/m 0 min 0 min 0 W/m 32,2 km/h (5 Bft) 97,87 %
19.01.2023 02:50 1,1 C 0,6 C -2,2 C 92 % 1002,9 hPa 0,0 l/m 0 min 0 min 0 W/m 25,7 km/h (4 Bft) 100,00 %
19.01.2023 02:52 1,1 C 0,6 C -2,2 C 92 % 1002,9 hPa 0,0 l/m 0 min 0 min 0 W/m 19,3 km/h (3 Bft) 100,00 %
19.01.2023 02:54 1,1 C 0,6 C -2,2 C 92 % 1002,8 hPa 0,0 l/m 0 min 0 min 0 W/m 12,9 km/h (3 Bft) 100,00 %
19.01.2023 02:56 1,1 C 0,0 C -2,2 C 92 % 1002,8 hPa 0,0 l/m 0 min 0 min 0 W/m 16,1 km/h (3 Bft) 100,00 %
19.01.2023 02:58 1,0 C 0,0 C -2,2 C 92 % 1002,8 hPa 0,0 l/m 0 min 0 min 0 W/m 16,1 km/h (3 Bft) 97,22 %
19.01.2023 03:00 1,0 C 0,0 C -2,2 C 92 % 1002,9 hPa 0,0 l/m 0 min 0 min 0 W/m 19,3 km/h (3 Bft) 97,87 %
19.01.2023 03:02 1,0 C 0,0 C -2,2 C 92 % 1002,8 hPa 0,0 l/m 0 min 0 min 0 W/m 16,1 km/h (3 Bft) 95,74 %
19.01.2023 03:04 1,0 C 0,0 C -2,2 C 92 % 1002,8 hPa 0,0 l/m 0 min 0 min 0 W/m 22,5 km/h (4 Bft) 97,87 %
19.01.2023 03:06 1,0 C 0,0 C -2,2 C 92 % 1002,8 hPa 0,0 l/m 0 min 0 min 0 W/m 22,5 km/h (4 Bft) 98,28 %
19.01.2023 03:08 1,0 C 0,6 C -2,2 C 92 % 1002,8 hPa 0,0 l/m 0 min 0 min 0 W/m 22,5 km/h (4 Bft) 97,14 %
19.01.2023 03:10 1,0 C 0,6 C -2,2 C 92 % 1002,8 hPa 0,0 l/m 0 min 0 min 0 W/m 22,5 km/h (4 Bft) 93,62 %
19.01.2023 03:12 1,0 C 0,6 C -2,2 C 92 % 1002,8 hPa 0,0 l/m 0 min 0 min 0 W/m 22,5 km/h (4 Bft) 95,74 %
19.01.2023 03:14 1,0 C 0,6 C -2,2 C 92 % 1002,7 hPa 0,0 l/m 0 min 0 min 0 W/m 16,1 km/h (3 Bft) 97,87 %
19.01.2023 03:16 1,0 C 0,0 C -2,2 C 92 % 1002,7 hPa 0,0 l/m 0 min 0 min 0 W/m 16,1 km/h (3 Bft) 97,87 %
19.01.2023 03:18 0,9 C 0,0 C -2,2 C 92 % 1002,7 hPa 0,0 l/m 0 min 0 min 0 W/m 19,3 km/h (3 Bft) 97,87 %
19.01.2023 03:20 0,9 C 0,0 C -2,2 C 92 % 1002,6 hPa 0,0 l/m 0 min 0 min 0 W/m 22,5 km/h (4 Bft) 97,87 %
19.01.2023 03:22 1,0 C 0,0 C -2,2 C 92 % 1002,7 hPa 0,0 l/m 0 min 0 min 0 W/m 22,5 km/h (4 Bft) 95,74 %
19.01.2023 03:24 0,9 C 0,6 C -2,2 C 92 % 1002,6 hPa 0,0 l/m 0 min 0 min 0 W/m 29,0 km/h (5 Bft) 97,83 %
19.01.2023 03:26 1,0 C 0,6 C -2,2 C 92 % 1002,7 hPa 0,0 l/m 0 min 0 min 0 W/m 29,0 km/h (5 Bft) 97,87 %
19.01.2023 03:28 1,0 C 0,6 C -2,2 C 92 % 1002,6 hPa 0,0 l/m 0 min 0 min 0 W/m 29,0 km/h (5 Bft) 95,74 %
19.01.2023 03:30 1,0 C 0,6 C -2,2 C 92 % 1002,6 hPa 0,0 l/m 0 min 0 min 0 W/m 19,3 km/h (3 Bft) 100,00 %
19.01.2023 03:32 1,0 C 0,6 C -2,2 C 92 % 1002,6 hPa 0,0 l/m 0 min 0 min 0 W/m 25,7 km/h (4 Bft) 100,00 %
19.01.2023 03:34 1,0 C 0,6 C -2,2 C 92 % 1002,6 hPa 0,0 l/m 0 min 0 min 0 W/m 25,7 km/h (4 Bft) 100,00 %
19.01.2023 03:36 1,0 C 0,6 C -2,2 C 92 % 1002,6 hPa 0,0 l/m 0 min 0 min 0 W/m 19,3 km/h (3 Bft) 100,00 %
19.01.2023 03:38 1,0 C 0,6 C -2,2 C 92 % 1002,6 hPa 0,0 l/m 0 min 0 min 0 W/m 22,5 km/h (4 Bft) 97,87 %
19.01.2023 03:40 1,0 C 0,6 C -2,2 C 92 % 1002,6 hPa 0,0 l/m 0 min 0 min 0 W/m 29,0 km/h (5 Bft) 95,74 %
19.01.2023 03:42 1,0 C 0,6 C -2,2 C 92 % 1002,6 hPa 0,0 l/m 0 min 0 min 0 W/m 19,3 km/h (3 Bft) 95,74 %
19.01.2023 03:44 1,0 C 0,6 C -2,2 C 92 % 1002,6 hPa 0,0 l/m 0 min 0 min 0 W/m 22,5 km/h (4 Bft) 95,74 %
19.01.2023 03:46 1,0 C 0,6 C -2,2 C 92 % 1002,6 hPa 0,0 l/m 0 min 0 min 0 W/m 32,2 km/h (5 Bft) 95,74 %
19.01.2023 03:48 1,1 C 0,6 C -2,2 C 92 % 1002,6 hPa 0,0 l/m 0 min 0 min 0 W/m 25,7 km/h (4 Bft) 95,65 %
19.01.2023 03:50 1,1 C 0,6 C -2,2 C 92 % 1002,6 hPa 0,0 l/m 0 min 0 min 0 W/m 25,7 km/h (4 Bft) 95,74 %
19.01.2023 03:52 1,1 C 0,6 C -2,2 C 92 % 1002,6 hPa 0,0 l/m 0 min 0 min 0 W/m 25,7 km/h (4 Bft) 91,49 %
19.01.2023 03:54 1,1 C 0,6 C -2,2 C 92 % 1002,6 hPa 0,0 l/m 0 min 0 min 0 W/m 22,5 km/h (4 Bft) 93,62 %
19.01.2023 03:56 1,1 C 0,6 C -2,2 C 92 % 1002,6 hPa 0,0 l/m 0 min 0 min 0 W/m 22,5 km/h (4 Bft) 95,74 %
19.01.2023 03:58 1,1 C 0,6 C -2,2 C 92 % 1002,7 hPa 0,0 l/m 0 min 0 min 0 W/m 29,0 km/h (5 Bft) 93,62 %
19.01.2023 04:00 1,2 C 0,6 C -2,2 C 92 % 1002,5 hPa 0,0 l/m 0 min 0 min 0 W/m 19,3 km/h (3 Bft) 95,74 %
19.01.2023 04:02 1,2 C 0,6 C -2,2 C 92 % 1002,6 hPa 0,0 l/m 0 min 0 min 0 W/m 29,0 km/h (5 Bft) 93,48 %
19.01.2023 04:04 1,2 C 0,6 C -2,2 C 92 % 1002,6 hPa 0,0 l/m 0 min 0 min 0 W/m 16,1 km/h (3 Bft) 95,74 %
19.01.2023 04:06 1,2 C 0,6 C -2,2 C 92 % 1002,6 hPa 0,0 l/m 0 min 0 min 0 W/m 29,0 km/h (5 Bft) 91,67 %
19.01.2023 04:08 1,2 C 0,6 C -2,2 C 92 % 1002,7 hPa 0,0 l/m 0 min 0 min 0 W/m 25,7 km/h (4 Bft) 94,29 %
19.01.2023 04:10 1,2 C 0,6 C -2,2 C 92 % 1002,7 hPa 0,0 l/m 0 min 0 min 0 W/m 22,5 km/h (4 Bft) 93,62 %
19.01.2023 04:12 1,3 C 0,6 C -2,2 C 92 % 1002,7 hPa 0,0 l/m 0 min 0 min 0 W/m 25,7 km/h (4 Bft) 95,74 %
19.01.2023 04:14 1,3 C 0,6 C -1,7 C 92 % 1002,5 hPa 0,0 l/m 0 min 0 min 0 W/m 22,5 km/h (4 Bft) 95,65 %
19.01.2023 04:16 1,3 C 0,6 C -1,7 C 92 % 1002,6 hPa 0,0 l/m 0 min 0 min 0 W/m 19,3 km/h (3 Bft) 95,74 %
19.01.2023 04:18 1,3 C 0,6 C -1,7 C 92 % 1002,7 hPa 0,0 l/m 0 min 0 min 0 W/m 16,1 km/h (3 Bft) 97,87 %
19.01.2023 04:20 1,3 C 1,1 C -1,7 C 92 % 1002,6 hPa 0,0 l/m 0 min 0 min 0 W/m 32,2 km/h (5 Bft) 95,74 %
19.01.2023 04:22 1,4 C 1,1 C -1,7 C 92 % 1002,7 hPa 0,0 l/m 0 min 0 min 0 W/m 16,1 km/h (3 Bft) 97,87 %
19.01.2023 04:24 1,4 C 1,1 C -1,7 C 92 % 1002,7 hPa 0,0 l/m 0 min 0 min 0 W/m 22,5 km/h (4 Bft) 97,87 %
19.01.2023 04:26 1,4 C 1,1 C -1,7 C 92 % 1002,7 hPa 0,0 l/m 0 min 0 min 0 W/m 16,1 km/h (3 Bft) 95,74 %
19.01.2023 04:28 1,4 C 0,6 C -1,7 C 92 % 1002,7 hPa 0,0 l/m 0 min 0 min 0 W/m 12,9 km/h (3 Bft) 95,65 %
19.01.2023 04:30 1,4 C 1,1 C -1,7 C 91 % 1002,7 hPa 0,0 l/m 0 min 0 min 0 W/m 19,3 km/h (3 Bft) 100,00 %
19.01.2023 04:32 1,4 C 0,6 C -1,7 C 91 % 1002,8 hPa 0,0 l/m 0 min 2 min 0 W/m 19,3 km/h (3 Bft) 97,87 %
19.01.2023 04:34 1,4 C 0,6 C -1,7 C 91 % 1002,7 hPa 0,0 l/m 0 min 0 min 0 W/m 9,7 km/h (2 Bft) 97,87 %
19.01.2023 04:36 1,4 C 0,6 C -1,7 C 91 % 1002,7 hPa 0,0 l/m 0 min 2 min 0 W/m 19,3 km/h (3 Bft) 97,87 %
19.01.2023 04:38 1,4 C 0,6 C -2,2 C 91 % 1002,8 hPa 0,0 l/m 0 min 2 min 0 W/m 19,3 km/h (3 Bft) 100,00 %
19.01.2023 04:40 1,4 C 0,6 C -2,2 C 92 % 1002,8 hPa 0,0 l/m 0 min 2 min 0 W/m 35,4 km/h (5 Bft) 100,00 %
19.01.2023 04:42 1,4 C 0,6 C -2,2 C 92 % 1002,7 hPa 0,0 l/m 0 min 2 min 0 W/m 16,1 km/h (3 Bft) 97,87 %
19.01.2023 04:44 1,4 C 0,6 C -2,2 C 92 % 1002,8 hPa 0,0 l/m 0 min 2 min 0 W/m 16,1 km/h (3 Bft) 97,87 %
19.01.2023 04:46 1,4 C 0,6 C -2,2 C 92 % 1002,7 hPa 0,0 l/m 0 min 2 min 0 W/m 25,7 km/h (4 Bft) 100,00 %
19.01.2023 04:48 1,4 C 0,6 C -2,2 C 92 % 1002,7 hPa 0,0 l/m 0 min 0 min 0 W/m 16,1 km/h (3 Bft) 95,74 %
19.01.2023 04:50 1,4 C 0,6 C -2,2 C 92 % 1002,8 hPa 0,0 l/m 0 min 2 min 0 W/m 16,1 km/h (3 Bft) 100,00 %
19.01.2023 04:52 1,4 C 0,6 C -2,2 C 92 % 1002,8 hPa 0,0 l/m 0 min 2 min 0 W/m 19,3 km/h (3 Bft) 95,74 %
19.01.2023 04:54 1,4 C 0,6 C -2,2 C 92 % 1002,7 hPa 0,0 l/m 0 min 2 min 0 W/m 22,5 km/h (4 Bft) 95,65 %
19.01.2023 04:56 1,3 C 0,6 C -2,2 C 92 % 1002,8 hPa 0,0 l/m 0 min 2 min 0 W/m 19,3 km/h (3 Bft) 97,87 %
19.01.2023 04:58 1,3 C 0,6 C -2,2 C 92 % 1002,8 hPa 0,0 l/m 0 min 2 min 0 W/m 22,5 km/h (4 Bft) 97,87 %
19.01.2023 05:00 1,3 C 0,6 C -2,2 C 92 % 1002,8 hPa 0,0 l/m 0 min 2 min 0 W/m 19,3 km/h (3 Bft) 95,74 %
19.01.2023 05:02 1,3 C 0,6 C -2,2 C 92 % 1002,8 hPa 0,0 l/m 0 min 2 min 0 W/m 12,9 km/h (3 Bft) 95,74 %
19.01.2023 05:04 1,3 C 0,6 C -2,8 C 92 % 1002,8 hPa 0,0 l/m 0 min 2 min 0 W/m 22,5 km/h (4 Bft) 97,87 %
19.01.2023 05:06 1,2 C 0,6 C -2,2 C 93 % 1002,7 hPa 0,0 l/m 0 min 2 min 0 W/m 25,7 km/h (4 Bft) 94,83 %
19.01.2023 05:08 1,2 C 0,6 C -2,2 C 93 % 1002,8 hPa 0,0 l/m 0 min 2 min 0 W/m 29,0 km/h (5 Bft) 100,00 %
19.01.2023 05:10 1,2 C 0,6 C -2,2 C 93 % 1002,8 hPa 0,2 l/m 0 min 2 min 0 W/m 19,3 km/h (3 Bft) 97,26 %
19.01.2023 05:12 1,2 C 0,6 C -2,2 C 93 % 1002,8 hPa 0,0 l/m 0 min 2 min 0 W/m 12,9 km/h (3 Bft) 95,74 %
19.01.2023 05:14 1,2 C 0,6 C -2,2 C 93 % 1002,7 hPa 0,0 l/m 0 min 2 min 0 W/m 19,3 km/h (3 Bft) 97,87 %
19.01.2023 05:16 1,2 C 0,6 C -2,2 C 93 % 1002,7 hPa 0,0 l/m 0 min 2 min 0 W/m 16,1 km/h (3 Bft) 97,87 %
19.01.2023 05:18 1,2 C 0,6 C -2,2 C 93 % 1002,8 hPa 0,0 l/m 0 min 2 min 0 W/m 19,3 km/h (3 Bft) 95,65 %
19.01.2023 05:20 1,1 C 0,6 C -2,2 C 93 % 1002,8 hPa 0,0 l/m 0 min 2 min 0 W/m 16,1 km/h (3 Bft) 97,87 %
19.01.2023 05:22 1,1 C 0,6 C -2,2 C 93 % 1002,7 hPa 0,0 l/m 0 min 2 min 0 W/m 19,3 km/h (3 Bft) 97,87 %
19.01.2023 05:24 1,1 C 0,6 C -2,8 C 93 % 1002,8 hPa 0,2 l/m 0 min 2 min 0 W/m 19,3 km/h (3 Bft) 95,74 %
19.01.2023 05:26 1,1 C 0,0 C -2,8 C 94 % 1002,8 hPa 0,0 l/m 0 min 2 min 0 W/m 12,9 km/h (3 Bft) 100,00 %
19.01.2023 05:28 1,1 C 0,0 C -2,8 C 94 % 1002,8 hPa 0,0 l/m 0 min 2 min 0 W/m 19,3 km/h (3 Bft) 100,00 %
19.01.2023 05:30 1,0 C 0,0 C -2,8 C 94 % 1002,7 hPa 0,0 l/m 0 min 2 min 0 W/m 22,5 km/h (4 Bft) 97,87 %
19.01.2023 05:32 0,9 C 0,0 C -2,8 C 94 % 1002,7 hPa 0,0 l/m 0 min 2 min 0 W/m 12,9 km/h (3 Bft) 100,00 %
19.01.2023 05:34 0,9 C 0,0 C -3,3 C 94 % 1002,8 hPa 0,0 l/m 0 min 2 min 0 W/m 19,3 km/h (3 Bft) 97,87 %
19.01.2023 05:36 0,8 C 0,0 C -3,3 C 94 % 1002,7 hPa 0,0 l/m 0 min 2 min 0 W/m 12,9 km/h (3 Bft) 97,87 %
19.01.2023 05:38 0,8 C 0,0 C -3,3 C 94 % 1002,7 hPa 0,0 l/m 0 min 2 min 0 W/m 16,1 km/h (3 Bft) 97,87 %
19.01.2023 05:40 0,8 C 0,0 C -3,3 C 94 % 1002,8 hPa 0,0 l/m 0 min 2 min 0 W/m 16,1 km/h (3 Bft) 97,87 %
19.01.2023 05:42 0,7 C -0,6 C -3,3 C 94 % 1002,7 hPa 0,0 l/m 0 min 2 min 0 W/m 19,3 km/h (3 Bft) 100,00 %
19.01.2023 05:44 0,7 C -0,6 C -3,3 C 94 % 1002,7 hPa 0,0 l/m 0 min 2 min 0 W/m 19,3 km/h (3 Bft) 97,83 %
19.01.2023 05:46 0,6 C 0,0 C -3,3 C 94 % 1002,8 hPa 0,0 l/m 0 min 2 min 0 W/m 12,9 km/h (3 Bft) 95,74 %
19.01.2023 05:48 0,6 C 0,0 C -3,3 C 94 % 1002,7 hPa 0,0 l/m 0 min 2 min 0 W/m 12,9 km/h (3 Bft) 97,87 %
19.01.2023 05:50 0,6 C 0,0 C -3,3 C 94 % 1002,8 hPa 0,0 l/m 0 min 2 min 0 W/m 9,7 km/h (2 Bft) 100,00 %
19.01.2023 05:52 0,6 C 0,0 C -2,8 C 94 % 1002,8 hPa 0,0 l/m 0 min 2 min 0 W/m 16,1 km/h (3 Bft) 100,00 %
19.01.2023 05:54 0,6 C 0,0 C -2,8 C 95 % 1002,8 hPa 0,0 l/m 0 min 0 min 0 W/m 9,7 km/h (2 Bft) 97,14 %
19.01.2023 05:56 0,6 C 0,0 C -3,3 C 95 % 1002,8 hPa 0,0 l/m 0 min 2 min 0 W/m 12,9 km/h (3 Bft) 98,04 %
19.01.2023 05:58 0,6 C 0,0 C -3,3 C 95 % 1002,9 hPa 0,0 l/m 0 min 2 min 0 W/m 12,9 km/h (3 Bft) 100,00 %
19.01.2023 06:00 0,6 C 0,0 C -3,3 C 95 % 1002,8 hPa 0,0 l/m 0 min 2 min 0 W/m 9,7 km/h (2 Bft) 100,00 %
19.01.2023 06:02 0,6 C 0,0 C -3,3 C 95 % 1002,9 hPa 0,0 l/m 0 min 2 min 0 W/m 12,9 km/h (3 Bft) 97,87 %
19.01.2023 06:04 0,6 C -0,6 C -3,3 C 95 % 1002,9 hPa 0,0 l/m 0 min 2 min 0 W/m 9,7 km/h (2 Bft) 95,74 %
19.01.2023 06:07 0,6 C -0,6 C -3,3 C 95 % 1002,9 hPa 0,0 l/m 0 min 0 min 0 W/m 12,9 km/h (3 Bft) 98,61 %
19.01.2023 06:08 0,6 C -0,6 C -3,3 C 95 % 1002,9 hPa 0,0 l/m 0 min 0 min 0 W/m 12,9 km/h (3 Bft) 86,96 %
19.01.2023 06:10 0,6 C -0,6 C -3,3 C 95 % 1002,9 hPa 0,0 l/m 0 min 0 min 0 W/m 19,3 km/h (3 Bft) 97,87 %
19.01.2023 06:12 0,5 C -0,6 C -3,3 C 95 % 1002,9 hPa 0,0 l/m 0 min 0 min 0 W/m 22,5 km/h (4 Bft) 95,74 %
19.01.2023 06:14 0,5 C -0,6 C -3,3 C 95 % 1003,0 hPa 0,0 l/m 0 min 2 min 0 W/m 12,9 km/h (3 Bft) 97,87 %
19.01.2023 06:16 0,5 C -0,6 C -3,3 C 95 % 1002,9 hPa 0,0 l/m 0 min 2 min 0 W/m 12,9 km/h (3 Bft) 97,87 %
19.01.2023 06:18 0,5 C -0,6 C -3,3 C 95 % 1003,0 hPa 0,0 l/m 0 min 0 min 0 W/m 22,5 km/h (4 Bft) 97,87 %
19.01.2023 06:20 0,5 C -0,6 C -3,3 C 95 % 1003,0 hPa 0,0 l/m 0 min 0 min 0 W/m 9,7 km/h (2 Bft) 97,87 %
19.01.2023 06:22 0,5 C -0,6 C -2,8 C 95 % 1003,0 hPa 0,0 l/m 0 min 0 min 0 W/m 6,4 km/h (2 Bft) 97,83 %
19.01.2023 06:24 0,5 C -0,6 C -2,8 C 95 % 1002,9 hPa 0,0 l/m 0 min 0 min 0 W/m 12,9 km/h (3 Bft) 95,74 %
19.01.2023 06:26 0,5 C -0,6 C -2,8 C 95 % 1003,0 hPa 0,0 l/m 0 min 2 min 0 W/m 12,9 km/h (3 Bft) 97,87 %
19.01.2023 06:28 0,5 C -0,6 C -2,8 C 96 % 1002,9 hPa 0,0 l/m 0 min 0 min 0 W/m 12,9 km/h (3 Bft) 95,74 %
19.01.2023 06:30 0,5 C -0,6 C -3,3 C 96 % 1003,0 hPa 0,0 l/m 0 min 2 min 0 W/m 12,9 km/h (3 Bft) 97,87 %
19.01.2023 06:32 0,5 C -0,6 C -2,8 C 95 % 1002,9 hPa 0,0 l/m 0 min 0 min 0 W/m 16,1 km/h (3 Bft) 93,62 %
19.01.2023 06:34 0,5 C -0,6 C -2,8 C 95 % 1003,0 hPa 0,2 l/m 0 min 2 min 0 W/m 16,1 km/h (3 Bft) 95,74 %
19.01.2023 06:36 0,5 C 0,0 C -2,8 C 96 % 1003,1 hPa 0,0 l/m 0 min 2 min 0 W/m 25,7 km/h (4 Bft) 97,83 %
19.01.2023 06:38 0,5 C 0,0 C -2,8 C 96 % 1003,0 hPa 0,0 l/m 0 min 0 min 0 W/m 19,3 km/h (3 Bft) 95,74 %
19.01.2023 06:40 0,5 C 0,0 C -2,8 C 96 % 1003,1 hPa 0,0 l/m 0 min 2 min 0 W/m 16,1 km/h (3 Bft) 97,87 %
19.01.2023 06:42 0,5 C 0,0 C -2,8 C 96 % 1003,0 hPa 0,0 l/m 0 min 2 min 0 W/m 12,9 km/h (3 Bft) 93,62 %
19.01.2023 06:44 0,5 C 0,0 C -2,8 C 96 % 1003,2 hPa 0,0 l/m 0 min 2 min 0 W/m 16,1 km/h (3 Bft) 95,74 %
19.01.2023 06:46 0,6 C 0,0 C -2,8 C 96 % 1003,1 hPa 0,0 l/m 0 min 2 min 0 W/m 12,9 km/h (3 Bft) 95,74 %
19.01.2023 06:48 0,6 C 0,0 C -2,8 C 96 % 1003,2 hPa 0,0 l/m 0 min 2 min 0 W/m 16,1 km/h (3 Bft) 95,65 %
19.01.2023 06:50 0,6 C 0,0 C -2,8 C 96 % 1003,2 hPa 0,0 l/m 0 min 2 min 0 W/m 12,9 km/h (3 Bft) 95,74 %
19.01.2023 06:52 0,6 C 0,0 C -2,8 C 96 % 1003,2 hPa 0,0 l/m 0 min 2 min 0 W/m 16,1 km/h (3 Bft) 95,74 %
19.01.2023 06:54 0,6 C 0,0 C -2,8 C 96 % 1003,3 hPa 0,2 l/m 0 min 2 min 0 W/m 19,3 km/h (3 Bft) 95,74 %
19.01.2023 06:56 0,6 C 0,0 C -2,8 C 96 % 1003,3 hPa 0,0 l/m 0 min 2 min 0 W/m 12,9 km/h (3 Bft) 93,62 %
19.01.2023 06:58 0,6 C 0,0 C -2,8 C 96 % 1003,3 hPa 0,0 l/m 0 min 2 min 0 W/m 12,9 km/h (3 Bft) 95,74 %
19.01.2023 07:00 0,6 C 0,0 C -2,8 C 96 % 1003,3 hPa 0,0 l/m 0 min 2 min 0 W/m 25,7 km/h (4 Bft) 93,62 %
19.01.2023 07:02 0,6 C 0,0 C -2,8 C 96 % 1003,3 hPa 0,0 l/m 0 min 2 min 0 W/m 19,3 km/h (3 Bft) 95,65 %
19.01.2023 07:04 0,6 C 0,0 C -2,8 C 96 % 1003,3 hPa 0,0 l/m 0 min 2 min 0 W/m 16,1 km/h (3 Bft) 95,74 %
19.01.2023 07:06 0,6 C 0,0 C -2,8 C 96 % 1003,4 hPa 0,0 l/m 0 min 2 min 0 W/m 12,9 km/h (3 Bft) 95,74 %
19.01.2023 07:08 0,6 C 0,0 C -2,8 C 96 % 1003,3 hPa 0,0 l/m 0 min 2 min 0 W/m 12,9 km/h (3 Bft) 95,74 %
19.01.2023 07:10 0,6 C 0,0 C -2,8 C 96 % 1003,2 hPa 0,0 l/m 0 min 2 min 0 W/m 16,1 km/h (3 Bft) 93,62 %
19.01.2023 07:12 0,6 C 0,0 C -2,8 C 96 % 1003,2 hPa 0,0 l/m 0 min 2 min 0 W/m 9,7 km/h (2 Bft) 95,74 %
19.01.2023 07:14 0,6 C 0,0 C -2,8 C 96 % 1003,1 hPa 0,0 l/m 0 min 2 min 0 W/m 16,1 km/h (3 Bft) 95,65 %
19.01.2023 07:16 0,6 C 0,0 C -2,8 C 96 % 1003,1 hPa 0,0 l/m 0 min 2 min 0 W/m 12,9 km/h (3 Bft) 97,87 %
19.01.2023 07:18 0,6 C 0,0 C -2,8 C 96 % 1003,1 hPa 0,0 l/m 0 min 2 min 0 W/m 16,1 km/h (3 Bft) 91,49 %
19.01.2023 07:20 0,6 C 0,0 C -2,8 C 96 % 1003,1 hPa 0,0 l/m 0 min 2 min 0 W/m 12,9 km/h (3 Bft) 95,74 %
19.01.2023 07:22 0,6 C 0,0 C -2,8 C 96 % 1003,1 hPa 0,0 l/m 0 min 2 min 0 W/m 19,3 km/h (3 Bft) 95,74 %
19.01.2023 07:24 0,6 C 0,0 C -2,8 C 96 % 1003,1 hPa 0,2 l/m 0 min 0 min 0 W/m 12,9 km/h (3 Bft) 95,74 %
19.01.2023 07:26 0,6 C 0,0 C -2,8 C 97 % 1003,2 hPa 0,0 l/m 0 min 2 min 0 W/m 16,1 km/h (3 Bft) 97,87 %
19.01.2023 07:28 0,6 C 0,0 C -2,8 C 97 % 1003,3 hPa 0,0 l/m 0 min 2 min 0 W/m 12,9 km/h (3 Bft) 95,65 %
19.01.2023 07:30 0,6 C 0,0 C -2,8 C 97 % 1003,3 hPa 0,0 l/m 0 min 0 min 0 W/m 16,1 km/h (3 Bft) 97,87 %
19.01.2023 07:32 0,6 C 0,0 C -2,8 C 97 % 1003,4 hPa 0,0 l/m 0 min 0 min 0 W/m 12,9 km/h (3 Bft) 95,74 %
19.01.2023 07:34 0,6 C 0,0 C -2,8 C 97 % 1003,5 hPa 0,0 l/m 0 min 0 min 0 W/m 19,3 km/h (3 Bft) 95,74 %
19.01.2023 07:36 0,6 C 0,0 C -2,8 C 97 % 1003,5 hPa 0,0 l/m 0 min 0 min 0 W/m 22,5 km/h (4 Bft) 97,87 %
19.01.2023 07:38 0,6 C 0,0 C -2,8 C 97 % 1003,5 hPa 0,0 l/m 0 min 2 min 0 W/m 16,1 km/h (3 Bft) 100,00 %
19.01.2023 07:40 0,6 C 0,0 C -2,8 C 97 % 1003,5 hPa 0,0 l/m 0 min 2 min 0 W/m 12,9 km/h (3 Bft) 100,00 %
19.01.2023 07:42 0,6 C 0,0 C -2,8 C 97 % 1003,4 hPa 0,0 l/m 0 min 0 min 0 W/m 12,9 km/h (3 Bft) 100,00 %
19.01.2023 07:44 0,6 C 0,0 C -2,2 C 97 % 1003,5 hPa 0,2 l/m 0 min 0 min 0 W/m 16,1 km/h (3 Bft) 97,87 %
19.01.2023 07:46 0,6 C 0,0 C -2,2 C 97 % 1003,6 hPa 0,0 l/m 0 min 0 min 0 W/m 12,9 km/h (3 Bft) 100,00 %
19.01.2023 07:48 0,6 C 0,0 C -2,8 C 97 % 1003,6 hPa 0,0 l/m 0 min 2 min 0 W/m 19,3 km/h (3 Bft) 97,87 %
19.01.2023 07:50 0,6 C 0,0 C -2,8 C 97 % 1003,6 hPa 0,0 l/m 0 min 2 min 0 W/m 16,1 km/h (3 Bft) 100,00 %
19.01.2023 07:52 0,6 C 0,0 C -2,8 C 97 % 1003,7 hPa 0,0 l/m 0 min 2 min 0 W/m 16,1 km/h (3 Bft) 95,74 %
19.01.2023 07:54 0,6 C 0,0 C -2,8 C 97 % 1003,7 hPa 0,0 l/m 0 min 2 min 0 W/m 16,1 km/h (3 Bft) 51,22 %
19.01.2023 07:56 0,7 C 0,0 C -2,2 C 97 % 1003,8 hPa 0,0 l/m 0 min 2 min 0 W/m 16,1 km/h (3 Bft) 100,00 %
19.01.2023 07:58 0,7 C 0,0 C -2,2 C 97 % 1003,7 hPa 0,0 l/m 0 min 2 min 0 W/m 12,9 km/h (3 Bft) 100,00 %
19.01.2023 08:00 0,7 C 0,0 C -2,2 C 97 % 1003,8 hPa 0,0 l/m 0 min 2 min 0 W/m 22,5 km/h (4 Bft) 100,00 %
19.01.2023 08:02 0,7 C 0,0 C -2,2 C 97 % 1003,9 hPa 0,0 l/m 0 min 2 min 0 W/m 16,1 km/h (3 Bft) 100,00 %
19.01.2023 08:04 0,6 C 0,0 C -2,2 C 97 % 1003,9 hPa 0,0 l/m 0 min 2 min 0 W/m 9,7 km/h (2 Bft) 97,87 %
19.01.2023 08:06 0,6 C 0,0 C -2,2 C 97 % 1003,9 hPa 0,2 l/m 0 min 0 min 0 W/m 22,5 km/h (4 Bft) 100,00 %
19.01.2023 08:08 0,7 C 0,0 C -2,2 C 97 % 1003,9 hPa 0,0 l/m 0 min 0 min 0 W/m 19,3 km/h (3 Bft) 97,87 %
19.01.2023 08:10 0,7 C 0,0 C -2,2 C 97 % 1004,0 hPa 0,0 l/m 0 min 0 min 0 W/m 16,1 km/h (3 Bft) 97,87 %
19.01.2023 08:12 0,7 C 0,0 C -2,2 C 97 % 1004,0 hPa 0,0 l/m 0 min 0 min 0 W/m 16,1 km/h (3 Bft) 97,87 %
19.01.2023 08:14 0,7 C 0,0 C -2,2 C 97 % 1004,0 hPa 0,0 l/m 0 min 0 min 0 W/m 16,1 km/h (3 Bft) 97,87 %
19.01.2023 08:16 0,7 C 0,0 C -2,2 C 97 % 1004,0 hPa 0,0 l/m 0 min 0 min 0 W/m 12,9 km/h (3 Bft) 95,74 %
19.01.2023 08:18 0,7 C 0,0 C -2,2 C 97 % 1004,1 hPa 0,0 l/m 0 min 2 min 0 W/m 19,3 km/h (3 Bft) 100,00 %
19.01.2023 08:20 0,7 C 0,0 C -2,2 C 97 % 1004,1 hPa 0,0 l/m 0 min 2 min 0 W/m 16,1 km/h (3 Bft) 100,00 %
19.01.2023 08:22 0,7 C 0,0 C -2,2 C 97 % 1004,1 hPa 0,0 l/m 0 min 2 min 0 W/m 25,7 km/h (4 Bft) 97,87 %
19.01.2023 08:24 0,7 C 0,0 C -2,2 C 97 % 1004,1 hPa 0,0 l/m 0 min 2 min 0 W/m 12,9 km/h (3 Bft) 97,87 %
19.01.2023 08:26 0,7 C 0,0 C -2,2 C 97 % 1004,2 hPa 0,2 l/m 0 min 2 min 0 W/m 12,9 km/h (3 Bft) 100,00 %
19.01.2023 08:28 0,7 C 0,0 C -2,2 C 97 % 1004,3 hPa 0,0 l/m 0 min 0 min 0 W/m 19,3 km/h (3 Bft) 97,87 %
19.01.2023 08:30 0,7 C 0,0 C -2,2 C 97 % 1004,3 hPa 0,0 l/m 0 min 0 min 0 W/m 12,9 km/h (3 Bft) 97,87 %
19.01.2023 08:32 0,7 C 0,0 C -2,2 C 97 % 1004,3 hPa 0,0 l/m 0 min 0 min 0 W/m 12,9 km/h (3 Bft) 97,83 %
19.01.2023 08:34 0,7 C 0,0 C -2,2 C 97 % 1004,2 hPa 0,0 l/m 0 min 0 min 0 W/m 12,9 km/h (3 Bft) 95,74 %
19.01.2023 08:36 0,7 C 0,0 C -2,2 C 97 % 1004,3 hPa 0,0 l/m 0 min 0 min 0 W/m 16,1 km/h (3 Bft) 93,62 %
19.01.2023 08:38 0,7 C 0,0 C -2,2 C 97 % 1004,2 hPa 0,0 l/m 0 min 0 min 0 W/m 12,9 km/h (3 Bft) 97,87 %
19.01.2023 08:40 0,8 C 0,0 C -2,2 C 97 % 1004,2 hPa 0,0 l/m 0 min 0 min 0 W/m 12,9 km/h (3 Bft) 55,56 %
19.01.2023 08:42 0,7 C 0,0 C -2,2 C 97 % 1004,3 hPa 0,0 l/m 0 min 0 min 0 W/m 16,1 km/h (3 Bft) 95,74 %
19.01.2023 08:44 0,7 C 0,0 C -2,2 C 97 % 1004,4 hPa 0,0 l/m 0 min 0 min 2 W/m 16,1 km/h (3 Bft) 95,74 %
19.01.2023 08:46 0,7 C 0,0 C -2,2 C 97 % 1004,4 hPa 0,0 l/m 0 min 0 min 5 W/m 19,3 km/h (3 Bft) 93,48 %
19.01.2023 08:48 0,7 C 0,0 C -2,2 C 97 % 1004,4 hPa 0,0 l/m 0 min 0 min 5 W/m 16,1 km/h (3 Bft) 95,74 %
19.01.2023 08:50 0,8 C 0,0 C -2,2 C 97 % 1004,5 hPa 0,0 l/m 0 min 0 min 5 W/m 12,9 km/h (3 Bft) 95,74 %
19.01.2023 08:52 0,8 C 0,0 C -2,2 C 97 % 1004,6 hPa 0,0 l/m 0 min 0 min 5 W/m 9,7 km/h (2 Bft) 95,74 %
19.01.2023 08:54 0,8 C 0,0 C -2,2 C 97 % 1004,6 hPa 0,0 l/m 0 min 0 min 6 W/m 12,9 km/h (3 Bft) 95,74 %
19.01.2023 08:56 0,8 C 0,0 C -2,2 C 97 % 1004,6 hPa 0,0 l/m 0 min 2 min 7 W/m 16,1 km/h (3 Bft) 95,74 %
19.01.2023 08:58 0,7 C 0,0 C -2,2 C 97 % 1004,6 hPa 0,0 l/m 0 min 2 min 8 W/m 9,7 km/h (2 Bft) 95,65 %
19.01.2023 09:00 0,7 C 0,0 C -2,8 C 97 % 1004,6 hPa 0,0 l/m 0 min 2 min 8 W/m 12,9 km/h (3 Bft) 95,74 %
19.01.2023 09:02 0,6 C 0,0 C -2,8 C 97 % 1004,6 hPa 0,0 l/m 0 min 2 min 10 W/m 12,9 km/h (3 Bft) 93,62 %
19.01.2023 09:04 0,6 C 0,0 C -2,8 C 97 % 1004,6 hPa 0,0 l/m 0 min 0 min 13 W/m 12,9 km/h (3 Bft) 95,74 %
19.01.2023 09:06 0,6 C 0,0 C -2,8 C 97 % 1004,7 hPa 0,0 l/m 0 min 2 min 14 W/m 12,9 km/h (3 Bft) 95,74 %
19.01.2023 09:08 0,6 C 0,0 C -2,8 C 97 % 1004,7 hPa 0,0 l/m 0 min 2 min 16 W/m 12,9 km/h (3 Bft) 100,00 %
19.01.2023 09:10 0,6 C 0,0 C -2,2 C 97 % 1004,7 hPa 0,2 l/m 0 min 2 min 17 W/m 16,1 km/h (3 Bft) 100,00 %
19.01.2023 09:12 0,6 C 0,0 C -2,2 C 97 % 1004,8 hPa 0,0 l/m 0 min 2 min 18 W/m 6,4 km/h (2 Bft) 100,00 %
19.01.2023 09:14 0,6 C 0,0 C -2,2 C 97 % 1004,8 hPa 0,0 l/m 0 min 2 min 20 W/m 12,9 km/h (3 Bft) 100,00 %
19.01.2023 09:16 0,6 C 0,0 C -2,2 C 97 % 1004,8 hPa 0,0 l/m 0 min 0 min 20 W/m 6,4 km/h (2 Bft) 97,87 %
19.01.2023 09:18 0,6 C 0,0 C -2,2 C 97 % 1004,8 hPa 0,0 l/m 0 min 2 min 22 W/m 12,9 km/h (3 Bft) 100,00 %
19.01.2023 09:20 0,6 C 0,0 C -2,2 C 97 % 1004,9 hPa 0,0 l/m 0 min 0 min 25 W/m 12,9 km/h (3 Bft) 97,87 %
19.01.2023 09:22 0,7 C 0,0 C -2,2 C 97 % 1004,9 hPa 0,0 l/m 0 min 2 min 28 W/m 9,7 km/h (2 Bft) 100,00 %
19.01.2023 09:24 0,7 C 0,6 C -2,2 C 97 % 1004,9 hPa 0,2 l/m 0 min 0 min 30 W/m 12,9 km/h (3 Bft) 100,00 %
19.01.2023 09:26 0,8 C 0,6 C -2,2 C 97 % 1005,0 hPa 0,0 l/m 0 min 2 min 32 W/m 12,9 km/h (3 Bft) 97,87 %
19.01.2023 09:28 0,8 C 0,6 C -2,2 C 97 % 1004,9 hPa 0,0 l/m 0 min 0 min 33 W/m 12,9 km/h (3 Bft) 100,00 %
19.01.2023 09:30 0,8 C 0,6 C -2,2 C 97 % 1005,0 hPa 0,0 l/m 0 min 0 min 37 W/m 19,3 km/h (3 Bft) 100,00 %
19.01.2023 09:32 0,8 C 0,6 C -2,2 C 97 % 1005,0 hPa 0,0 l/m 0 min 0 min 40 W/m 12,9 km/h (3 Bft) 100,00 %
19.01.2023 09:34 0,8 C 0,6 C -2,2 C 97 % 1005,0 hPa 0,0 l/m 0 min 0 min 43 W/m 16,1 km/h (3 Bft) 100,00 %
19.01.2023 09:36 0,8 C 0,6 C -2,2 C 97 % 1005,0 hPa 0,0 l/m 0 min 0 min 43 W/m 19,3 km/h (3 Bft) 100,00 %
19.01.2023 09:38 0,9 C 0,6 C -2,2 C 97 % 1005,0 hPa 0,0 l/m 0 min 0 min 40 W/m 12,9 km/h (3 Bft) 100,00 %
19.01.2023 09:40 0,9 C 0,6 C -2,2 C 97 % 1005,0 hPa 0,0 l/m 0 min 0 min 43 W/m 16,1 km/h (3 Bft) 100,00 %
19.01.2023 09:42 0,9 C 0,6 C -2,2 C 97 % 1005,1 hPa 0,0 l/m 0 min 0 min 44 W/m 12,9 km/h (3 Bft) 100,00 %
19.01.2023 09:44 0,9 C 0,6 C -2,2 C 97 % 1005,1 hPa 0,0 l/m 0 min 0 min 46 W/m 12,9 km/h (3 Bft) 95,74 %
19.01.2023 09:46 0,9 C 0,6 C -2,2 C 97 % 1005,2 hPa 0,0 l/m 0 min 0 min 43 W/m 9,7 km/h (2 Bft) 100,00 %
19.01.2023 09:48 0,9 C 0,6 C -2,2 C 97 % 1005,2 hPa 0,2 l/m 0 min 0 min 44 W/m 16,1 km/h (3 Bft) 97,87 %
19.01.2023 09:50 0,9 C 0,6 C -2,2 C 97 % 1005,3 hPa 0,0 l/m 0 min 0 min 38 W/m 16,1 km/h (3 Bft) 95,65 %
19.01.2023 09:52 0,9 C 0,6 C -2,2 C 97 % 1005,2 hPa 0,0 l/m 0 min 0 min 46 W/m 25,7 km/h (4 Bft) 95,74 %
19.01.2023 09:54 1,0 C 0,6 C -2,2 C 97 % 1005,2 hPa 0,0 l/m 0 min 0 min 44 W/m 12,9 km/h (3 Bft) 97,87 %
19.01.2023 09:56 0,9 C 0,6 C -2,2 C 97 % 1005,2 hPa 0,0 l/m 0 min 0 min 45 W/m 12,9 km/h (3 Bft) 97,30 %
19.01.2023 09:58 1,0 C 0,6 C -2,2 C 97 % 1005,2 hPa 0,0 l/m 0 min 0 min 44 W/m 12,9 km/h (3 Bft) 96,61 %
19.01.2023 10:00 1,0 C 0,6 C -1,7 C 97 % 1005,3 hPa 0,0 l/m 0 min 0 min 46 W/m 12,9 km/h (3 Bft) 97,14 %
19.01.2023 10:02 1,0 C 0,6 C -1,7 C 97 % 1005,4 hPa 0,0 l/m 0 min 0 min 50 W/m 19,3 km/h (3 Bft) 97,87 %
19.01.2023 10:04 1,0 C 0,6 C -1,7 C 97 % 1005,4 hPa 0,2 l/m 0 min 0 min 48 W/m 12,9 km/h (3 Bft) 97,87 %
19.01.2023 10:06 1,0 C 0,6 C -1,7 C 97 % 1005,4 hPa 0,0 l/m 0 min 0 min 46 W/m 12,9 km/h (3 Bft) 98,15 %
19.01.2023 10:08 1,0 C 0,6 C -1,7 C 97 % 1005,4 hPa 0,0 l/m 0 min 0 min 43 W/m 12,9 km/h (3 Bft) 97,87 %
19.01.2023 10:10 1,1 C 0,6 C -1,7 C 97 % 1005,3 hPa 0,0 l/m 0 min 0 min 46 W/m 12,9 km/h (3 Bft) 97,14 %
19.01.2023 10:12 1,1 C 0,6 C -1,7 C 97 % 1005,4 hPa 0,0 l/m 0 min 0 min 45 W/m 12,9 km/h (3 Bft) 97,87 %
19.01.2023 10:14 1,1 C 0,6 C -1,7 C 97 % 1005,4 hPa 0,0 l/m 0 min 0 min 38 W/m 16,1 km/h (3 Bft) 97,87 %
19.01.2023 10:16 1,1 C 0,6 C -1,7 C 97 % 1005,4 hPa 0,0 l/m 0 min 0 min 36 W/m 12,9 km/h (3 Bft) 95,74 %
19.01.2023 10:18 1,1 C 0,6 C -1,7 C 97 % 1005,4 hPa 0,0 l/m 0 min 0 min 37 W/m 12,9 km/h (3 Bft) 95,65 %
19.01.2023 10:20 1,1 C 0,6 C -1,7 C 97 % 1005,5 hPa 0,0 l/m 0 min 0 min 38 W/m 22,5 km/h (4 Bft) 100,00 %
19.01.2023 10:22 1,1 C 0,6 C -1,7 C 97 % 1005,5 hPa 0,0 l/m 0 min 0 min 43 W/m 12,9 km/h (3 Bft) 97,87 %
19.01.2023 10:24 1,1 C 0,6 C -1,7 C 97 % 1005,5 hPa 0,0 l/m 0 min 0 min 40 W/m 16,1 km/h (3 Bft) 97,87 %
19.01.2023 10:26 1,1 C 0,6 C -1,7 C 97 % 1005,6 hPa 0,0 l/m 0 min 0 min 44 W/m 19,3 km/h (3 Bft) 93,62 %
19.01.2023 10:28 1,1 C 0,6 C -1,7 C 97 % 1005,6 hPa 0,2 l/m 0 min 0 min 51 W/m 19,3 km/h (3 Bft) 95,74 %
19.01.2023 10:30 1,1 C 0,6 C -1,7 C 97 % 1005,7 hPa 0,0 l/m 0 min 0 min 53 W/m 9,7 km/h (2 Bft) 95,74 %
19.01.2023 10:32 1,1 C 0,6 C -1,7 C 97 % 1005,7 hPa 0,0 l/m 0 min 0 min 56 W/m 12,9 km/h (3 Bft) 95,65 %
19.01.2023 10:34 1,1 C 1,1 C -1,7 C 97 % 1005,7 hPa 0,0 l/m 0 min 0 min 66 W/m 16,1 km/h (3 Bft) 93,62 %
19.01.2023 10:36 1,1 C 1,1 C -1,7 C 97 % 1005,8 hPa 0,0 l/m 0 min 0 min 65 W/m 12,9 km/h (3 Bft) 95,74 %
19.01.2023 10:38 1,2 C 1,1 C -1,7 C 97 % 1005,8 hPa 0,0 l/m 0 min 0 min 60 W/m 19,3 km/h (3 Bft) 95,74 %
19.01.2023 10:40 1,2 C 1,1 C -1,7 C 97 % 1005,9 hPa 0,0 l/m 0 min 0 min 47 W/m 12,9 km/h (3 Bft) 93,62 %
19.01.2023 10:42 1,2 C 0,6 C -1,7 C 97 % 1005,9 hPa 0,0 l/m 0 min 0 min 43 W/m 16,1 km/h (3 Bft) 97,87 %
19.01.2023 10:44 1,2 C 0,6 C -1,7 C 97 % 1005,9 hPa 0,2 l/m 0 min 0 min 50 W/m 16,1 km/h (3 Bft) 95,65 %
19.01.2023 10:46 1,2 C 1,1 C -1,7 C 97 % 1005,9 hPa 0,0 l/m 0 min 0 min 63 W/m 12,9 km/h (3 Bft) 97,87 %
19.01.2023 10:48 1,2 C 1,1 C -1,7 C 97 % 1006,0 hPa 0,0 l/m 0 min 0 min 79 W/m 16,1 km/h (3 Bft) 95,74 %
19.01.2023 10:50 1,2 C 1,1 C -1,7 C 97 % 1006,0 hPa 0,0 l/m 0 min 0 min 62 W/m 12,9 km/h (3 Bft) 95,74 %
19.01.2023 10:52 1,2 C 1,1 C -1,7 C 97 % 1006,1 hPa 0,0 l/m 0 min 0 min 79 W/m 12,9 km/h (3 Bft) 93,62 %
19.01.2023 10:54 1,2 C 1,1 C -1,7 C 97 % 1006,1 hPa 0,0 l/m 0 min 0 min 113 W/m 12,9 km/h (3 Bft) 97,87 %
19.01.2023 10:56 1,2 C 1,1 C -1,7 C 97 % 1006,1 hPa 0,0 l/m 0 min 0 min 74 W/m 12,9 km/h (3 Bft) 97,83 %
19.01.2023 10:58 1,2 C 1,1 C -1,7 C 97 % 1006,2 hPa 0,0 l/m 0 min 0 min 60 W/m 12,9 km/h (3 Bft) 95,74 %
19.01.2023 11:00 1,2 C 1,1 C -1,7 C 97 % 1006,1 hPa 0,0 l/m 0 min 0 min 100 W/m 19,3 km/h (3 Bft) 97,87 %
19.01.2023 11:02 1,3 C 1,1 C -1,7 C 97 % 1006,2 hPa 0,0 l/m 0 min 0 min 115 W/m 16,1 km/h (3 Bft) 52,38 %
19.01.2023 11:04 1,3 C 1,1 C -1,7 C 97 % 1006,2 hPa 0,0 l/m 0 min 0 min 46 W/m 16,1 km/h (3 Bft) 95,74 %
19.01.2023 11:06 1,3 C 1,1 C -1,7 C 97 % 1006,2 hPa 0,2 l/m 0 min 0 min 52 W/m 12,9 km/h (3 Bft) 96,55 %
19.01.2023 11:08 1,3 C 1,1 C -1,7 C 97 % 1006,2 hPa 0,0 l/m 0 min 0 min 86 W/m 12,9 km/h (3 Bft) 97,87 %
19.01.2023 11:10 1,3 C 1,1 C -1,7 C 97 % 1006,2 hPa 0,0 l/m 0 min 0 min 84 W/m 19,3 km/h (3 Bft) 100,00 %
19.01.2023 11:12 1,3 C 1,1 C -1,7 C 97 % 1006,2 hPa 0,0 l/m 0 min 0 min 74 W/m 6,4 km/h (2 Bft) 95,74 %
19.01.2023 11:14 1,3 C 1,1 C -1,7 C 97 % 1006,3 hPa 0,0 l/m 0 min 0 min 48 W/m 6,4 km/h (2 Bft) 97,87 %
19.01.2023 11:16 1,3 C 1,1 C -1,7 C 97 % 1006,3 hPa 0,0 l/m 0 min 0 min 54 W/m 19,3 km/h (3 Bft) 97,87 %
19.01.2023 11:18 1,3 C 1,1 C -1,7 C 97 % 1006,3 hPa 0,0 l/m 0 min 0 min 83 W/m 12,9 km/h (3 Bft) 97,87 %
19.01.2023 11:20 1,3 C 1,1 C -1,7 C 97 % 1006,3 hPa 0,0 l/m 0 min 0 min 63 W/m 12,9 km/h (3 Bft) 97,87 %
19.01.2023 11:22 1,3 C 1,1 C -1,7 C 97 % 1006,4 hPa 0,0 l/m 0 min 0 min 54 W/m 9,7 km/h (2 Bft) 93,48 %
19.01.2023 11:24 1,3 C 1,1 C -1,7 C 97 % 1006,4 hPa 0,0 l/m 0 min 0 min 48 W/m 12,9 km/h (3 Bft) 97,87 %
19.01.2023 11:26 1,3 C 1,1 C -1,7 C 97 % 1006,4 hPa 0,0 l/m 0 min 0 min 53 W/m 6,4 km/h (2 Bft) 97,87 %
19.01.2023 11:28 1,4 C 1,1 C -1,7 C 97 % 1006,4 hPa 0,0 l/m 0 min 0 min 58 W/m 12,9 km/h (3 Bft) 97,87 %
19.01.2023 11:30 1,4 C 1,1 C -1,7 C 97 % 1006,4 hPa 0,2 l/m 0 min 0 min 60 W/m 6,4 km/h (2 Bft) 97,87 %
19.01.2023 11:32 1,4 C 1,1 C -1,7 C 97 % 1006,4 hPa 0,0 l/m 0 min 0 min 68 W/m 12,9 km/h (3 Bft) 95,74 %
19.01.2023 11:34 1,4 C 1,1 C -1,1 C 97 % 1006,4 hPa 0,0 l/m 0 min 0 min 89 W/m 12,9 km/h (3 Bft) 97,83 %
19.01.2023 11:36 1,4 C 1,1 C -1,1 C 97 % 1006,4 hPa 0,0 l/m 0 min 0 min 110 W/m 12,9 km/h (3 Bft) 97,87 %
19.01.2023 11:38 1,4 C 1,7 C -1,1 C 97 % 1006,4 hPa 0,0 l/m 0 min 0 min 126 W/m 6,4 km/h (2 Bft) 95,74 %
19.01.2023 11:40 1,5 C 1,7 C -1,1 C 97 % 1006,4 hPa 0,0 l/m 0 min 0 min 162 W/m 16,1 km/h (3 Bft) 97,87 %
19.01.2023 11:42 1,5 C 1,7 C -1,1 C 97 % 1006,5 hPa 0,0 l/m 0 min 0 min 124 W/m 9,7 km/h (2 Bft) 100,00 %
19.01.2023 11:44 1,6 C 1,7 C -1,1 C 97 % 1006,4 hPa 0,0 l/m 0 min 0 min 65 W/m 9,7 km/h (2 Bft) 97,87 %
19.01.2023 11:46 1,6 C 1,7 C -1,1 C 97 % 1006,4 hPa 0,0 l/m 0 min 0 min 46 W/m 6,4 km/h (2 Bft) 100,00 %
19.01.2023 11:48 1,6 C 1,1 C -1,1 C 97 % 1006,4 hPa 0,0 l/m 0 min 0 min 37 W/m 9,7 km/h (2 Bft) 97,87 %
19.01.2023 11:50 1,6 C 1,1 C -1,1 C 97 % 1006,4 hPa 0,0 l/m 0 min 0 min 56 W/m 9,7 km/h (2 Bft) 95,74 %
19.01.2023 11:52 1,6 C 1,1 C -1,1 C 97 % 1006,4 hPa 0,0 l/m 0 min 0 min 74 W/m 16,1 km/h (3 Bft) 57,45 %
19.01.2023 11:54 1,5 C 1,1 C -1,1 C 97 % 1006,3 hPa 0,0 l/m 0 min 0 min 106 W/m 16,1 km/h (3 Bft) 100,00 %
19.01.2023 11:56 1,6 C 1,7 C -1,1 C 97 % 1006,4 hPa 0,0 l/m 0 min 0 min 111 W/m 16,1 km/h (3 Bft) 100,00 %
19.01.2023 11:58 1,6 C 1,7 C -1,1 C 97 % 1006,4 hPa 0,0 l/m 0 min 0 min 114 W/m 12,9 km/h (3 Bft) 97,87 %
19.01.2023 12:00 1,6 C 1,7 C -1,1 C 97 % 1006,3 hPa 0,0 l/m 0 min 0 min 113 W/m 12,9 km/h (3 Bft) 100,00 %
19.01.2023 12:02 1,6 C 1,7 C -1,1 C 97 % 1006,4 hPa 0,0 l/m 0 min 0 min 105 W/m 16,1 km/h (3 Bft) 100,00 %
19.01.2023 12:04 1,6 C 1,7 C -1,1 C 97 % 1006,3 hPa 0,0 l/m 0 min 0 min 96 W/m 16,1 km/h (3 Bft) 100,00 %
19.01.2023 12:07 1,6 C 1,7 C -1,1 C 97 % 1006,3 hPa 0,0 l/m 0 min 0 min 84 W/m 25,7 km/h (4 Bft) 100,00 %
19.01.2023 12:08 1,7 C 1,7 C -1,1 C 97 % 1006,3 hPa 0,0 l/m 0 min 0 min 84 W/m 16,1 km/h (3 Bft) 100,00 %
19.01.2023 12:10 1,7 C 1,7 C -1,1 C 97 % 1006,3 hPa 0,0 l/m 0 min 0 min 76 W/m 12,9 km/h (3 Bft) 100,00 %
19.01.2023 12:12 1,7 C 1,7 C -1,1 C 97 % 1006,3 hPa 0,0 l/m 0 min 0 min 67 W/m 16,1 km/h (3 Bft) 100,00 %
19.01.2023 12:14 1,7 C 1,7 C -1,1 C 97 % 1006,4 hPa 0,0 l/m 0 min 0 min 60 W/m 12,9 km/h (3 Bft) 100,00 %
19.01.2023 12:16 1,7 C 1,7 C -1,1 C 97 % 1006,4 hPa 0,0 l/m 0 min 0 min 66 W/m 16,1 km/h (3 Bft) 97,87 %
19.01.2023 12:18 1,7 C 1,7 C -1,1 C 97 % 1006,4 hPa 0,0 l/m 0 min 0 min 74 W/m 6,4 km/h (2 Bft) 97,87 %
19.01.2023 12:20 1,7 C 1,7 C -1,1 C 97 % 1006,4 hPa 0,0 l/m 0 min 0 min 88 W/m 16,1 km/h (3 Bft) 97,87 %
19.01.2023 12:22 1,7 C 1,7 C -1,1 C 97 % 1006,4 hPa 0,0 l/m 0 min 0 min 71 W/m 19,3 km/h (3 Bft) 97,83 %
19.01.2023 12:24 1,7 C 1,7 C -1,1 C 97 % 1006,4 hPa 0,0 l/m 0 min 0 min 75 W/m 16,1 km/h (3 Bft) 97,87 %
19.01.2023 12:26 1,8 C 1,7 C -1,1 C 97 % 1006,4 hPa 0,0 l/m 0 min 0 min 85 W/m 22,5 km/h (4 Bft) 97,87 %
19.01.2023 12:28 1,7 C 1,7 C -1,1 C 97 % 1006,4 hPa 0,0 l/m 0 min 0 min 96 W/m 16,1 km/h (3 Bft) 97,87 %
19.01.2023 12:30 1,8 C 1,7 C -1,1 C 97 % 1006,4 hPa 0,0 l/m 0 min 0 min 113 W/m 16,1 km/h (3 Bft) 97,87 %
19.01.2023 12:32 1,8 C 1,7 C -1,1 C 97 % 1006,4 hPa 0,0 l/m 0 min 0 min 124 W/m 12,9 km/h (3 Bft) 97,87 %
19.01.2023 12:34 1,8 C 2,2 C -0,6 C 97 % 1006,5 hPa 0,0 l/m 0 min 0 min 160 W/m 12,9 km/h (3 Bft) 97,87 %
19.01.2023 12:36 1,9 C 2,2 C -0,6 C 97 % 1006,4 hPa 0,0 l/m 0 min 0 min 172 W/m 19,3 km/h (3 Bft) 97,83 %
19.01.2023 12:38 1,9 C 2,2 C -0,6 C 97 % 1006,4 hPa 0,0 l/m 0 min 0 min 136 W/m 22,5 km/h (4 Bft) 97,87 %
19.01.2023 12:40 1,9 C 2,2 C -0,6 C 97 % 1006,5 hPa 0,0 l/m 0 min 0 min 117 W/m 12,9 km/h (3 Bft) 97,87 %
19.01.2023 12:42 1,9 C 2,2 C -0,6 C 97 % 1006,4 hPa 0,0 l/m 0 min 0 min 102 W/m 16,1 km/h (3 Bft) 95,74 %
19.01.2023 12:44 1,9 C 2,2 C -0,6 C 97 % 1006,5 hPa 0,0 l/m 0 min 0 min 100 W/m 19,3 km/h (3 Bft) 97,87 %
19.01.2023 12:46 1,9 C 2,2 C -0,6 C 97 % 1006,5 hPa 0,0 l/m 0 min 0 min 99 W/m 16,1 km/h (3 Bft) 91,49 %
19.01.2023 12:48 2,0 C 2,2 C -0,6 C 97 % 1006,5 hPa 0,0 l/m 0 min 0 min 120 W/m 12,9 km/h (3 Bft) 91,30 %
19.01.2023 12:50 2,0 C 2,2 C -0,6 C 97 % 1006,5 hPa 0,0 l/m 0 min 0 min 108 W/m 6,4 km/h (2 Bft) 95,74 %
19.01.2023 12:52 2,0 C 2,2 C -0,6 C 97 % 1006,5 hPa 0,0 l/m 0 min 0 min 148 W/m 12,9 km/h (3 Bft) 93,62 %
19.01.2023 12:54 2,1 C 2,8 C -0,6 C 97 % 1006,5 hPa 0,0 l/m 2 min 0 min 206 W/m 22,5 km/h (4 Bft) 95,74 %
19.01.2023 12:56 2,1 C 3,3 C -0,6 C 97 % 1006,4 hPa 0,0 l/m 2 min 0 min 236 W/m 12,9 km/h (3 Bft) 97,87 %
19.01.2023 12:58 2,2 C 3,3 C 0,0 C 97 % 1006,4 hPa 0,0 l/m 2 min 0 min 233 W/m 12,9 km/h (3 Bft) 97,87 %
19.01.2023 13:00 2,3 C 3,3 C 0,0 C 97 % 1006,4 hPa 0,0 l/m 2 min 0 min 222 W/m 12,9 km/h (3 Bft) 97,87 %
19.01.2023 13:02 2,3 C 3,3 C 0,0 C 97 % 1006,4 hPa 0,0 l/m 0 min 0 min 138 W/m 12,9 km/h (3 Bft) 97,83 %
19.01.2023 13:04 2,3 C 2,8 C -0,6 C 97 % 1006,4 hPa 0,0 l/m 0 min 0 min 106 W/m 12,9 km/h (3 Bft) 97,87 %
19.01.2023 13:06 2,4 C 4,4 C -0,6 C 97 % 1006,5 hPa 0,0 l/m 0 min 0 min 176 W/m 12,9 km/h (3 Bft) 94,92 %
19.01.2023 13:08 2,4 C 4,4 C -0,6 C 97 % 1006,5 hPa 0,0 l/m 2 min 0 min 192 W/m 16,1 km/h (3 Bft) 97,14 %
19.01.2023 13:10 2,4 C 6,1 C -0,6 C 97 % 1006,5 hPa 0,0 l/m 0 min 0 min 153 W/m 12,9 km/h (3 Bft) 95,74 %
19.01.2023 13:12 2,6 C 6,1 C 0,0 C 97 % 1006,4 hPa 0,0 l/m 2 min 0 min 254 W/m 12,9 km/h (3 Bft) 95,74 %
19.01.2023 13:14 2,6 C 6,1 C -0,6 C 97 % 1006,4 hPa 0,0 l/m 2 min 0 min 307 W/m 16,1 km/h (3 Bft) 93,48 %
19.01.2023 13:16 2,7 C 6,7 C -0,6 C 97 % 1006,4 hPa 0,0 l/m 2 min 0 min 284 W/m 9,7 km/h (2 Bft) 97,87 %
19.01.2023 13:18 2,7 C 7,2 C -0,6 C 97 % 1006,4 hPa 0,0 l/m 2 min 0 min 291 W/m 9,7 km/h (2 Bft) 95,74 %
19.01.2023 13:20 2,8 C 6,7 C -0,6 C 97 % 1006,4 hPa 0,0 l/m 2 min 0 min 282 W/m 16,1 km/h (3 Bft) 97,87 %
19.01.2023 13:22 2,8 C 6,7 C -0,6 C 97 % 1006,3 hPa 0,0 l/m 2 min 0 min 258 W/m 12,9 km/h (3 Bft) 97,87 %
19.01.2023 13:24 2,8 C 7,2 C -0,6 C 97 % 1006,4 hPa 0,0 l/m 2 min 0 min 237 W/m 12,9 km/h (3 Bft) 93,62 %
19.01.2023 13:26 2,8 C 7,2 C -0,6 C 97 % 1006,3 hPa 0,0 l/m 2 min 0 min 304 W/m 16,1 km/h (3 Bft) 95,74 %
19.01.2023 13:28 2,8 C 6,7 C -0,6 C 96 % 1006,3 hPa 0,0 l/m 2 min 0 min 302 W/m 16,1 km/h (3 Bft) 97,83 %
19.01.2023 13:30 2,8 C 5,6 C -0,6 C 96 % 1006,4 hPa 0,0 l/m 2 min 0 min 182 W/m 16,1 km/h (3 Bft) 97,87 %
19.01.2023 13:32 2,8 C 4,4 C -0,6 C 96 % 1006,4 hPa 0,0 l/m 0 min 0 min 80 W/m 12,9 km/h (3 Bft) 97,87 %
19.01.2023 13:34 2,7 C 3,9 C -0,6 C 96 % 1006,3 hPa 0,0 l/m 0 min 0 min 85 W/m 6,4 km/h (2 Bft) 97,87 %
19.01.2023 13:36 2,7 C 4,4 C -0,6 C 96 % 1006,4 hPa 0,0 l/m 0 min 0 min 107 W/m 12,9 km/h (3 Bft) 97,87 %
19.01.2023 13:38 2,7 C 5,6 C -0,6 C 96 % 1006,4 hPa 0,0 l/m 0 min 0 min 161 W/m 6,4 km/h (2 Bft) 97,87 %
19.01.2023 13:40 2,8 C 5,0 C -0,6 C 96 % 1006,4 hPa 0,0 l/m 2 min 0 min 222 W/m 3,2 km/h (1 Bft) 100,00 %
19.01.2023 13:42 2,8 C 5,0 C -0,6 C 96 % 1006,4 hPa 0,0 l/m 2 min 0 min 246 W/m 16,1 km/h (3 Bft) 97,83 %
19.01.2023 13:44 2,8 C 3,9 C -0,6 C 96 % 1006,4 hPa 0,0 l/m 0 min 0 min 108 W/m 16,1 km/h (3 Bft) 100,00 %
19.01.2023 13:46 2,8 C 3,3 C -0,6 C 96 % 1006,5 hPa 0,0 l/m 0 min 0 min 70 W/m 9,7 km/h (2 Bft) 97,87 %
19.01.2023 13:48 2,7 C 2,8 C -0,6 C 95 % 1006,6 hPa 0,0 l/m 0 min 0 min 79 W/m 12,9 km/h (3 Bft) 97,87 %
19.01.2023 13:50 2,7 C 2,8 C -0,6 C 95 % 1006,6 hPa 0,0 l/m 0 min 0 min 70 W/m 12,9 km/h (3 Bft) 95,74 %
19.01.2023 13:52 2,7 C 2,8 C -0,6 C 95 % 1006,6 hPa 0,0 l/m 0 min 0 min 70 W/m 12,9 km/h (3 Bft) 91,49 %
19.01.2023 13:54 2,7 C 2,2 C -0,6 C 95 % 1006,6 hPa 0,0 l/m 0 min 0 min 41 W/m 12,9 km/h (3 Bft) 97,83 %
19.01.2023 13:56 2,6 C 2,2 C -0,6 C 95 % 1006,6 hPa 0,0 l/m 0 min 0 min 35 W/m 12,9 km/h (3 Bft) 95,74 %
19.01.2023 13:58 2,6 C 2,2 C -0,6 C 95 % 1006,6 hPa 0,0 l/m 0 min 0 min 37 W/m 25,7 km/h (4 Bft) 97,87 %
19.01.2023 14:00 2,6 C 2,2 C -0,6 C 95 % 1006,6 hPa 0,0 l/m 0 min 0 min 41 W/m 25,7 km/h (4 Bft) 97,87 %
19.01.2023 14:02 2,6 C 2,2 C -0,6 C 95 % 1006,6 hPa 0,0 l/m 0 min 0 min 62 W/m 12,9 km/h (3 Bft) 97,87 %
19.01.2023 14:04 2,6 C 2,2 C -0,6 C 95 % 1006,6 hPa 0,0 l/m 0 min 0 min 88 W/m 3,2 km/h (1 Bft) 97,87 %
19.01.2023 14:06 2,6 C 2,2 C -0,6 C 95 % 1006,7 hPa 0,0 l/m 0 min 0 min 81 W/m 16,1 km/h (3 Bft) 98,28 %
19.01.2023 14:08 2,6 C 2,2 C -0,6 C 95 % 1006,7 hPa 0,0 l/m 0 min 0 min 98 W/m 19,3 km/h (3 Bft) 97,14 %
19.01.2023 14:10 2,6 C 2,8 C -0,6 C 95 % 1006,7 hPa 0,0 l/m 0 min 0 min 103 W/m 6,4 km/h (2 Bft) 97,87 %
19.01.2023 14:12 2,6 C 2,8 C -0,6 C 95 % 1006,7 hPa 0,0 l/m 0 min 0 min 98 W/m 12,9 km/h (3 Bft) 97,87 %
19.01.2023 14:14 2,6 C 2,8 C -0,6 C 95 % 1006,7 hPa 0,0 l/m 0 min 0 min 64 W/m 6,4 km/h (2 Bft) 97,87 %
19.01.2023 14:16 2,6 C 2,8 C -0,6 C 95 % 1006,7 hPa 0,0 l/m 0 min 0 min 59 W/m 16,1 km/h (3 Bft) 95,74 %
19.01.2023 14:18 2,6 C 2,8 C -0,6 C 95 % 1006,6 hPa 0,0 l/m 0 min 0 min 59 W/m 9,7 km/h (2 Bft) 97,87 %
19.01.2023 14:20 2,6 C 2,8 C -0,6 C 95 % 1006,6 hPa 0,0 l/m 0 min 0 min 83 W/m 6,4 km/h (2 Bft) 97,83 %
19.01.2023 14:22 2,7 C 2,8 C 0,0 C 95 % 1006,6 hPa 0,0 l/m 0 min 0 min 116 W/m 6,4 km/h (2 Bft) 91,49 %
19.01.2023 14:24 2,7 C 2,8 C 0,0 C 95 % 1006,6 hPa 0,0 l/m 0 min 0 min 116 W/m 16,1 km/h (3 Bft) 95,74 %
19.01.2023 14:26 2,7 C 2,8 C 0,0 C 95 % 1006,6 hPa 0,0 l/m 0 min 0 min 103 W/m 6,4 km/h (2 Bft) 97,87 %
19.01.2023 14:28 2,8 C 2,8 C 0,0 C 95 % 1006,6 hPa 0,0 l/m 0 min 0 min 106 W/m 6,4 km/h (2 Bft) 97,87 %
19.01.2023 14:30 2,8 C 2,8 C 0,0 C 95 % 1006,6 hPa 0,0 l/m 0 min 0 min 114 W/m 12,9 km/h (3 Bft) 97,87 %
19.01.2023 14:32 2,8 C 2,8 C 0,0 C 95 % 1006,7 hPa 0,0 l/m 0 min 0 min 119 W/m 12,9 km/h (3 Bft) 95,74 %
19.01.2023 14:34 2,8 C 3,3 C 0,0 C 95 % 1006,6 hPa 0,0 l/m 0 min 0 min 125 W/m 12,9 km/h (3 Bft) 95,65 %
19.01.2023 14:36 2,8 C 2,8 C 0,0 C 95 % 1006,6 hPa 0,0 l/m 0 min 0 min 90 W/m 16,1 km/h (3 Bft) 95,74 %
19.01.2023 14:38 2,9 C 2,8 C 0,0 C 95 % 1006,6 hPa 0,0 l/m 0 min 0 min 60 W/m 12,9 km/h (3 Bft) 97,87 %
19.01.2023 14:40 2,9 C 2,8 C 0,0 C 95 % 1006,6 hPa 0,0 l/m 0 min 0 min 67 W/m 6,4 km/h (2 Bft) 95,74 %
19.01.2023 14:42 2,9 C 2,8 C 0,0 C 95 % 1006,7 hPa 0,0 l/m 0 min 0 min 90 W/m 9,7 km/h (2 Bft) 93,62 %
19.01.2023 14:44 2,9 C 3,3 C 0,0 C 95 % 1006,7 hPa 0,0 l/m 0 min 0 min 85 W/m 19,3 km/h (3 Bft) 95,74 %
19.01.2023 14:46 2,9 C 2,8 C 0,0 C 95 % 1006,7 hPa 0,0 l/m 0 min 0 min 72 W/m 19,3 km/h (3 Bft) 97,87 %
19.01.2023 14:48 2,9 C 2,8 C 0,0 C 95 % 1006,6 hPa 0,0 l/m 0 min 0 min 82 W/m 16,1 km/h (3 Bft) 97,83 %
19.01.2023 14:50 2,9 C 3,3 C 0,0 C 94 % 1006,7 hPa 0,0 l/m 2 min 0 min 193 W/m 12,9 km/h (3 Bft) 97,87 %
19.01.2023 14:52 2,9 C 3,9 C 0,0 C 94 % 1006,7 hPa 0,0 l/m 2 min 0 min 172 W/m 19,3 km/h (3 Bft) 97,87 %
19.01.2023 14:54 3,1 C 3,9 C 0,0 C 95 % 1006,7 hPa 0,0 l/m 2 min 0 min 166 W/m 19,3 km/h (3 Bft) 97,87 %
19.01.2023 14:56 3,1 C 4,4 C 0,0 C 94 % 1006,8 hPa 0,0 l/m 2 min 0 min 193 W/m 19,3 km/h (3 Bft) 97,87 %
19.01.2023 14:58 3,2 C 3,9 C 0,0 C 94 % 1006,8 hPa 0,0 l/m 0 min 0 min 122 W/m 16,1 km/h (3 Bft) 97,83 %
19.01.2023 15:00 3,2 C 3,9 C 0,0 C 94 % 1006,8 hPa 0,0 l/m 0 min 0 min 116 W/m 22,5 km/h (4 Bft) 97,87 %
19.01.2023 15:02 3,2 C 3,9 C 0,0 C 94 % 1006,8 hPa 0,0 l/m 0 min 0 min 118 W/m 12,9 km/h (3 Bft) 95,74 %
19.01.2023 15:04 3,2 C 3,9 C 0,0 C 94 % 1006,8 hPa 0,0 l/m 0 min 0 min 78 W/m 16,1 km/h (3 Bft) 100,00 %
19.01.2023 15:06 3,2 C 3,3 C 0,0 C 94 % 1007,0 hPa 0,0 l/m 0 min 0 min 81 W/m 25,7 km/h (4 Bft) 96,61 %
19.01.2023 15:08 3,2 C 3,3 C 0,0 C 93 % 1006,9 hPa 0,0 l/m 0 min 0 min 65 W/m 19,3 km/h (3 Bft) 100,00 %
19.01.2023 15:10 3,2 C 3,3 C 0,0 C 93 % 1006,9 hPa 0,0 l/m 0 min 0 min 48 W/m 16,1 km/h (3 Bft) 97,87 %
19.01.2023 15:12 3,2 C 2,8 C 0,0 C 93 % 1006,9 hPa 0,0 l/m 0 min 0 min 57 W/m 19,3 km/h (3 Bft) 100,00 %
19.01.2023 15:14 3,1 C 2,8 C 0,0 C 93 % 1006,9 hPa 0,0 l/m 0 min 0 min 54 W/m 12,9 km/h (3 Bft) 100,00 %
19.01.2023 15:16 3,1 C 2,8 C -0,6 C 93 % 1007,0 hPa 0,0 l/m 0 min 0 min 42 W/m 9,7 km/h (2 Bft) 97,87 %
19.01.2023 15:18 3,1 C 2,8 C -0,6 C 93 % 1006,9 hPa 0,0 l/m 0 min 0 min 40 W/m 12,9 km/h (3 Bft) 100,00 %
19.01.2023 15:20 3,1 C 2,8 C -0,6 C 93 % 1007,0 hPa 0,0 l/m 0 min 0 min 39 W/m 12,9 km/h (3 Bft) 100,00 %
19.01.2023 15:22 3,0 C 2,8 C -0,6 C 92 % 1007,0 hPa 0,0 l/m 0 min 0 min 38 W/m 16,1 km/h (3 Bft) 100,00 %
19.01.2023 15:24 2,9 C 2,8 C -0,6 C 92 % 1007,0 hPa 0,0 l/m 0 min 0 min 45 W/m 25,7 km/h (4 Bft) 100,00 %
19.01.2023 15:26 2,9 C 2,2 C -0,6 C 92 % 1007,0 hPa 0,0 l/m 0 min 0 min 48 W/m 6,4 km/h (2 Bft) 100,00 %
19.01.2023 15:28 2,8 C 2,2 C -0,6 C 92 % 1007,0 hPa 0,0 l/m 0 min 0 min 48 W/m 16,1 km/h (3 Bft) 97,87 %
19.01.2023 15:30 2,8 C 2,2 C -0,6 C 92 % 1007,1 hPa 0,0 l/m 0 min 0 min 45 W/m 19,3 km/h (3 Bft) 100,00 %
19.01.2023 15:32 2,7 C 2,2 C -0,6 C 92 % 1007,1 hPa 0,0 l/m 0 min 0 min 40 W/m 19,3 km/h (3 Bft) 97,87 %
19.01.2023 15:34 2,6 C 2,2 C -0,6 C 92 % 1007,1 hPa 0,0 l/m 0 min 0 min 39 W/m 6,4 km/h (2 Bft) 100,00 %
19.01.2023 15:36 2,6 C 2,2 C -0,6 C 92 % 1007,1 hPa 0,0 l/m 0 min 0 min 40 W/m 12,9 km/h (3 Bft) 100,00 %
19.01.2023 15:38 2,6 C 2,2 C -0,6 C 92 % 1007,1 hPa 0,0 l/m 0 min 0 min 44 W/m 16,1 km/h (3 Bft) 100,00 %
19.01.2023 15:40 2,5 C 2,2 C -0,6 C 92 % 1007,1 hPa 0,0 l/m 0 min 0 min 47 W/m 9,7 km/h (2 Bft) 97,83 %
19.01.2023 15:42 2,5 C 2,2 C -0,6 C 92 % 1007,1 hPa 0,0 l/m 0 min 0 min 46 W/m 6,4 km/h (2 Bft) 95,74 %
19.01.2023 15:44 2,5 C 2,2 C -0,6 C 92 % 1007,2 hPa 0,0 l/m 0 min 0 min 42 W/m 3,2 km/h (1 Bft) 97,87 %
19.01.2023 15:46 2,5 C 2,2 C -0,6 C 92 % 1007,2 hPa 0,0 l/m 0 min 0 min 37 W/m 3,2 km/h (1 Bft) 97,87 %
19.01.2023 15:48 2,5 C 2,2 C -0,6 C 92 % 1007,2 hPa 0,0 l/m 0 min 0 min 26 W/m 6,4 km/h (2 Bft) 97,87 %
19.01.2023 15:50 2,5 C 2,2 C -0,6 C 92 % 1007,2 hPa 0,0 l/m 0 min 0 min 23 W/m 6,4 km/h (2 Bft) 95,74 %
19.01.2023 15:52 2,5 C 2,2 C -0,6 C 92 % 1007,2 hPa 0,0 l/m 0 min 0 min 24 W/m 12,9 km/h (3 Bft) 97,83 %
19.01.2023 15:54 2,5 C 2,2 C -0,6 C 92 % 1007,3 hPa 0,0 l/m 0 min 0 min 22 W/m 12,9 km/h (3 Bft) 97,87 %
19.01.2023 15:56 2,5 C 2,2 C -0,6 C 93 % 1007,3 hPa 0,0 l/m 0 min 0 min 27 W/m 9,7 km/h (2 Bft) 97,87 %
19.01.2023 15:58 2,5 C 2,2 C -0,6 C 93 % 1007,3 hPa 0,0 l/m 0 min 0 min 26 W/m 12,9 km/h (3 Bft) 95,74 %
19.01.2023 16:00 2,6 C 2,2 C -0,6 C 93 % 1007,3 hPa 0,0 l/m 0 min 0 min 28 W/m 6,4 km/h (2 Bft) 97,87 %
19.01.2023 16:02 2,5 C 2,2 C -0,6 C 93 % 1007,3 hPa 0,0 l/m 0 min 0 min 27 W/m 16,1 km/h (3 Bft) 95,92 %
19.01.2023 16:04 2,5 C 2,2 C -0,6 C 93 % 1007,3 hPa 0,0 l/m 0 min 0 min 26 W/m 9,7 km/h (2 Bft) 97,87 %
19.01.2023 16:06 2,4 C 2,2 C -0,6 C 93 % 1007,3 hPa 0,0 l/m 0 min 0 min 25 W/m 22,5 km/h (4 Bft) 97,96 %
19.01.2023 16:08 2,4 C 2,2 C -0,6 C 93 % 1007,3 hPa 0,0 l/m 0 min 0 min 23 W/m 16,1 km/h (3 Bft) 97,87 %
19.01.2023 16:10 2,4 C 2,2 C -0,6 C 93 % 1007,3 hPa 0,0 l/m 0 min 0 min 23 W/m 19,3 km/h (3 Bft) 97,14 %
19.01.2023 16:12 2,4 C 2,2 C -0,6 C 93 % 1007,4 hPa 0,0 l/m 0 min 0 min 20 W/m 12,9 km/h (3 Bft) 95,74 %
19.01.2023 16:14 2,4 C 2,2 C -0,6 C 93 % 1007,3 hPa 0,0 l/m 0 min 0 min 17 W/m 6,4 km/h (2 Bft) 98,18 %
19.01.2023 16:16 2,4 C 2,2 C -0,6 C 93 % 1007,3 hPa 0,0 l/m 0 min 0 min 14 W/m 9,7 km/h (2 Bft) 95,65 %
19.01.2023 16:18 2,4 C 2,2 C -0,6 C 93 % 1007,4 hPa 0,0 l/m 0 min 0 min 12 W/m 6,4 km/h (2 Bft) 97,87 %
19.01.2023 16:20 2,4 C 2,2 C -0,6 C 93 % 1007,4 hPa 0,0 l/m 0 min 0 min 14 W/m 12,9 km/h (3 Bft) 97,87 %
19.01.2023 16:22 2,4 C 2,2 C -0,6 C 93 % 1007,4 hPa 0,0 l/m 0 min 0 min 14 W/m 16,1 km/h (3 Bft) 95,74 %
19.01.2023 16:24 2,4 C 1,7 C -0,6 C 93 % 1007,4 hPa 0,0 l/m 0 min 0 min 14 W/m 22,5 km/h (4 Bft) 98,00 %
19.01.2023 16:26 2,3 C 1,7 C -1,1 C 93 % 1007,4 hPa 0,0 l/m 0 min 0 min 13 W/m 12,9 km/h (3 Bft) 95,74 %
19.01.2023 16:28 2,3 C 1,7 C -0,6 C 93 % 1007,5 hPa 0,0 l/m 0 min 0 min 11 W/m 16,1 km/h (3 Bft) 93,48 %
19.01.2023 16:30 2,3 C 1,7 C -1,1 C 93 % 1007,4 hPa 0,0 l/m 0 min 0 min 9 W/m 16,1 km/h (3 Bft) 97,87 %
19.01.2023 16:32 2,3 C 1,7 C -1,1 C 93 % 1007,5 hPa 0,0 l/m 0 min 0 min 9 W/m 9,7 km/h (2 Bft) 93,62 %
19.01.2023 16:34 2,3 C 1,7 C -1,1 C 93 % 1007,5 hPa 0,0 l/m 0 min 0 min 7 W/m 3,2 km/h (1 Bft) 43,24 %
19.01.2023 16:36 2,3 C 1,7 C -1,1 C 93 % 1007,5 hPa 0,0 l/m 0 min 0 min 7 W/m 3,2 km/h (1 Bft) 87,50 %
19.01.2023 16:38 2,3 C 1,7 C -1,1 C 93 % 1007,5 hPa 0,0 l/m 0 min 0 min 8 W/m 6,4 km/h (2 Bft) 95,74 %
19.01.2023 16:40 2,3 C 1,7 C -1,1 C 93 % 1007,5 hPa 0,0 l/m 0 min 0 min 8 W/m 6,4 km/h (2 Bft) 95,74 %
19.01.2023 16:42 2,2 C 1,7 C -1,1 C 93 % 1007,5 hPa 0,0 l/m 0 min 0 min 7 W/m 9,7 km/h (2 Bft) 93,48 %
19.01.2023 16:44 2,2 C 1,7 C -1,1 C 93 % 1007,5 hPa 0,0 l/m 0 min 0 min 7 W/m 3,2 km/h (1 Bft) 95,74 %
19.01.2023 16:46 2,2 C 1,7 C -1,1 C 93 % 1007,5 hPa 0,0 l/m 0 min 0 min 7 W/m 16,1 km/h (3 Bft) 95,74 %
19.01.2023 16:48 2,2 C 1,7 C -1,1 C 93 % 1007,5 hPa 0,0 l/m 0 min 0 min 7 W/m 6,4 km/h (2 Bft) 95,74 %
19.01.2023 16:50 2,2 C 1,7 C -1,1 C 93 % 1007,5 hPa 0,0 l/m 0 min 0 min 5 W/m 3,2 km/h (1 Bft) 93,62 %
19.01.2023 16:52 2,2 C 1,1 C -1,1 C 93 % 1007,5 hPa 0,0 l/m 0 min 0 min 5 W/m 6,4 km/h (2 Bft) 95,74 %
19.01.2023 16:54 2,1 C 1,1 C -1,1 C 93 % 1007,6 hPa 0,0 l/m 0 min 0 min 5 W/m 6,4 km/h (2 Bft) 95,65 %
19.01.2023 16:55 2,1 C 1,1 C -1,1 C 93 % 1007,7 hPa 0,0 l/m 0 min 0 min 5 W/m 6,4 km/h (2 Bft) 97,37 %
19.01.2023 17:00 2,1 C 1,1 C -1,1 C 93 % 1007,7 hPa 0,0 l/m 0 min 0 min 4 W/m 12,9 km/h (3 Bft) 97,37 %
19.01.2023 17:05 2,0 C 1,1 C -1,1 C 93 % 1007,7 hPa 0,0 l/m 0 min 0 min 0 W/m 9,7 km/h (2 Bft) 99,12 %
19.01.2023 17:10 1,9 C 1,1 C -1,1 C 93 % 1007,7 hPa 0,0 l/m 0 min 0 min 0 W/m 12,9 km/h (3 Bft) 99,12 %
19.01.2023 17:15 1,9 C 1,1 C -1,1 C 94 % 1007,8 hPa 0,0 l/m 0 min 0 min 0 W/m 9,7 km/h (2 Bft) 99,12 %
19.01.2023 17:20 1,9 C 1,1 C -1,1 C 93 % 1007,8 hPa 0,0 l/m 0 min 0 min 0 W/m 12,9 km/h (3 Bft) 100,00 %
19.01.2023 17:26 1,8 C 1,1 C -1,1 C 93 % 1007,8 hPa 0,0 l/m 0 min 0 min 0 W/m 3,2 km/h (1 Bft) 96,83 %
19.01.2023 17:28 1,8 C 1,1 C -1,1 C 93 % 1007,8 hPa 0,0 l/m 0 min 0 min 0 W/m 12,9 km/h (3 Bft) 97,06 %
19.01.2023 17:30 1,8 C 1,1 C -1,7 C 93 % 1007,8 hPa 0,0 l/m 0 min 0 min 0 W/m 9,7 km/h (2 Bft) 100,00 %
19.01.2023 17:32 1,8 C 1,1 C -1,7 C 93 % 1007,8 hPa 0,0 l/m 0 min 0 min 0 W/m 9,7 km/h (2 Bft) 97,83 %
19.01.2023 17:34 1,8 C 1,1 C -1,7 C 93 % 1007,8 hPa 0,0 l/m 0 min 0 min 0 W/m 6,4 km/h (2 Bft) 95,74 %
19.01.2023 17:36 1,8 C 1,1 C -1,7 C 93 % 1007,9 hPa 0,0 l/m 0 min 0 min 0 W/m 3,2 km/h (1 Bft) 100,00 %
19.01.2023 17:41 1,7 C 0,6 C -1,7 C 94 % 1007,9 hPa 0,0 l/m 0 min 0 min 0 W/m 12,9 km/h (3 Bft) 95,65 %
19.01.2023 17:42 1,7 C 0,6 C -1,7 C 94 % 1007,9 hPa 0,0 l/m 0 min 0 min 0 W/m 3,2 km/h (1 Bft) 91,30 %
19.01.2023 17:44 1,7 C 0,6 C -1,7 C 94 % 1008,0 hPa 0,0 l/m 0 min 0 min 0 W/m 6,4 km/h (2 Bft) 95,74 %
19.01.2023 17:46 1,6 C 0,6 C -1,7 C 94 % 1007,9 hPa 0,0 l/m 0 min 0 min 0 W/m 3,2 km/h (1 Bft) 100,00 %
19.01.2023 17:48 1,6 C 0,6 C -1,7 C 93 % 1007,9 hPa 0,0 l/m 0 min 0 min 0 W/m 3,2 km/h (1 Bft) 93,62 %
19.01.2023 17:50 1,6 C 0,6 C -1,7 C 93 % 1007,9 hPa 0,0 l/m 0 min 0 min 0 W/m 0,0 km/h (0 Bft) 100,00 %
19.01.2023 17:52 1,6 C 0,6 C -1,7 C 93 % 1008,0 hPa 0,0 l/m 0 min 0 min 0 W/m 0,0 km/h (0 Bft) 97,87 %
19.01.2023 17:54 1,6 C 0,6 C -2,2 C 93 % 1008,0 hPa 0,0 l/m 0 min 0 min 0 W/m 0,0 km/h (0 Bft) 100,00 %
19.01.2023 17:56 1,6 C 0,6 C -1,7 C 93 % 1008,0 hPa 0,0 l/m 0 min 0 min 0 W/m 3,2 km/h (1 Bft) 97,87 %
19.01.2023 17:58 1,5 C 0,6 C -2,2 C 93 % 1008,1 hPa 0,0 l/m 0 min 0 min 0 W/m 0,0 km/h (0 Bft) 100,00 %
19.01.2023 18:00 1,5 C 0,6 C -2,2 C 93 % 1008,1 hPa 0,0 l/m 0 min 0 min 0 W/m 0,0 km/h (0 Bft) 100,00 %
19.01.2023 18:02 1,4 C 0,0 C -2,2 C 93 % 1008,1 hPa 0,0 l/m 0 min 0 min 0 W/m 0,0 km/h (0 Bft) 100,00 %
19.01.2023 18:04 1,4 C 0,0 C -2,2 C 94 % 1008,1 hPa 0,0 l/m 0 min 0 min 0 W/m 0,0 km/h (0 Bft) 100,00 %
19.01.2023 18:07 1,4 C 0,0 C -2,2 C 94 % 1008,2 hPa 0,0 l/m 0 min 0 min 0 W/m 0,0 km/h (0 Bft) 100,00 %
19.01.2023 18:08 1,3 C 0,0 C -2,8 C 94 % 1008,2 hPa 0,0 l/m 0 min 0 min 0 W/m 0,0 km/h (0 Bft) 100,00 %
19.01.2023 18:12 1,3 C -0,6 C -2,8 C 94 % 1008,2 hPa 0,0 l/m 0 min 0 min 0 W/m 0,0 km/h (0 Bft) 55,56 %
19.01.2023 18:14 1,3 C -0,6 C -2,8 C 94 % 1008,2 hPa 0,0 l/m 0 min 0 min 0 W/m 0,0 km/h (0 Bft) 96,23 %
19.01.2023 18:16 1,2 C -0,6 C -2,8 C 93 % 1008,2 hPa 0,0 l/m 0 min 0 min 0 W/m 0,0 km/h (0 Bft) 96,00 %
19.01.2023 18:18 1,2 C -0,6 C -2,8 C 93 % 1008,2 hPa 0,0 l/m 0 min 0 min 0 W/m 0,0 km/h (0 Bft) 97,87 %
19.01.2023 18:20 1,1 C -0,6 C -2,8 C 93 % 1008,2 hPa 0,0 l/m 0 min 0 min 0 W/m 0,0 km/h (0 Bft) 97,87 %
19.01.2023 18:22 1,1 C -0,6 C -2,8 C 93 % 1008,2 hPa 0,0 l/m 0 min 0 min 0 W/m 0,0 km/h (0 Bft) 97,87 %
19.01.2023 18:24 1,1 C -0,6 C -2,8 C 93 % 1008,3 hPa 0,0 l/m 0 min 0 min 0 W/m 0,0 km/h (0 Bft) 97,87 %
19.01.2023 18:26 1,0 C -0,6 C -2,8 C 93 % 1008,2 hPa 0,0 l/m 0 min 0 min 0 W/m 0,0 km/h (0 Bft) 95,65 %
19.01.2023 18:28 1,0 C -0,6 C -2,8 C 93 % 1008,2 hPa 0,0 l/m 0 min 0 min 0 W/m 0,0 km/h (0 Bft) 97,87 %
19.01.2023 18:30 0,9 C 0,0 C -2,8 C 94 % 1008,2 hPa 0,0 l/m 0 min 0 min 0 W/m 3,2 km/h (1 Bft) 97,87 %
19.01.2023 18:32 0,9 C 0,0 C -2,8 C 94 % 1008,3 hPa 0,0 l/m 0 min 0 min 0 W/m 0,0 km/h (0 Bft) 95,74 %
19.01.2023 18:34 0,9 C 0,0 C -2,8 C 94 % 1008,3 hPa 0,0 l/m 0 min 0 min 0 W/m 0,0 km/h (0 Bft) 97,87 %
19.01.2023 18:36 0,9 C 0,0 C -2,8 C 94 % 1008,3 hPa 0,0 l/m 0 min 0 min 0 W/m 0,0 km/h (0 Bft) 97,87 %
19.01.2023 18:38 0,9 C 0,0 C -2,8 C 94 % 1008,3 hPa 0,0 l/m 0 min 0 min 0 W/m 3,2 km/h (1 Bft) 97,87 %
19.01.2023 18:40 0,9 C 0,0 C -2,8 C 94 % 1008,4 hPa 0,0 l/m 0 min 0 min 0 W/m 3,2 km/h (1 Bft) 95,65 %
19.01.2023 18:42 0,9 C 0,0 C -2,8 C 94 % 1008,3 hPa 0,0 l/m 0 min 0 min 0 W/m 3,2 km/h (1 Bft) 95,74 %
19.01.2023 18:44 0,9 C 0,0 C -2,8 C 94 % 1008,3 hPa 0,0 l/m 0 min 0 min 0 W/m 3,2 km/h (1 Bft) 95,74 %
19.01.2023 18:46 0,9 C 0,0 C -2,8 C 94 % 1008,4 hPa 0,0 l/m 0 min 0 min 0 W/m 0,0 km/h (0 Bft) 95,83 %
19.01.2023 18:48 0,9 C 0,0 C -2,8 C 94 % 1008,4 hPa 0,0 l/m 0 min 0 min 0 W/m 0,0 km/h (0 Bft) 100,00 %
19.01.2023 18:50 0,8 C 0,0 C -2,8 C 94 % 1008,4 hPa 0,0 l/m 0 min 0 min 0 W/m 3,2 km/h (1 Bft) 95,74 %
19.01.2023 18:52 0,8 C 0,0 C -2,2 C 94 % 1008,3 hPa 0,0 l/m 0 min 0 min 0 W/m 3,2 km/h (1 Bft) 100,00 %
19.01.2023 18:54 0,8 C 0,0 C -2,2 C 94 % 1008,3 hPa 0,0 l/m 0 min 0 min 0 W/m 6,4 km/h (2 Bft) 97,83 %
19.01.2023 18:56 0,8 C 0,0 C -2,2 C 94 % 1008,4 hPa 0,0 l/m 0 min 0 min 0 W/m 0,0 km/h (0 Bft) 97,87 %
19.01.2023 18:58 0,8 C 0,0 C -2,2 C 94 % 1008,3 hPa 0,0 l/m 0 min 0 min 0 W/m 3,2 km/h (1 Bft) 97,62 %
19.01.2023 19:00 0,8 C 0,0 C -2,2 C 94 % 1008,3 hPa 0,0 l/m 0 min 0 min 0 W/m 3,2 km/h (1 Bft) 91,49 %
19.01.2023 19:02 0,8 C 0,0 C -2,2 C 94 % 1008,3 hPa 0,0 l/m 0 min 0 min 0 W/m 3,2 km/h (1 Bft) 98,00 %
19.01.2023 19:04 0,8 C 0,0 C -2,2 C 94 % 1008,3 hPa 0,0 l/m 0 min 0 min 0 W/m 0,0 km/h (0 Bft) 91,49 %
19.01.2023 19:06 0,8 C 0,0 C -2,2 C 94 % 1008,3 hPa 0,0 l/m 0 min 0 min 0 W/m 0,0 km/h (0 Bft) 93,62 %
19.01.2023 19:08 0,8 C 0,0 C -2,2 C 94 % 1008,3 hPa 0,0 l/m 0 min 0 min 0 W/m 6,4 km/h (2 Bft) 95,65 %
19.01.2023 19:10 0,7 C 0,0 C -2,2 C 94 % 1008,3 hPa 0,0 l/m 0 min 0 min 0 W/m 3,2 km/h (1 Bft) 93,62 %
19.01.2023 19:12 0,7 C 0,0 C -2,2 C 94 % 1008,4 hPa 0,0 l/m 0 min 0 min 0 W/m 3,2 km/h (1 Bft) 95,74 %
19.01.2023 19:14 0,7 C 0,0 C -2,8 C 94 % 1008,4 hPa 0,0 l/m 0 min 0 min 0 W/m 3,2 km/h (1 Bft) 95,74 %
19.01.2023 19:16 0,7 C 0,0 C -2,8 C 94 % 1008,4 hPa 0,0 l/m 0 min 0 min 0 W/m 3,2 km/h (1 Bft) 95,74 %
19.01.2023 19:18 0,7 C 0,0 C -2,2 C 94 % 1008,4 hPa 0,0 l/m 0 min 0 min 0 W/m 0,0 km/h (0 Bft) 95,74 %
19.01.2023 19:20 0,7 C 0,0 C -2,2 C 94 % 1008,4 hPa 0,0 l/m 0 min 0 min 0 W/m 3,2 km/h (1 Bft) 95,74 %
19.01.2023 19:22 0,7 C 0,0 C -2,2 C 94 % 1008,4 hPa 0,0 l/m 0 min 0 min 0 W/m 3,2 km/h (1 Bft) 95,65 %
19.01.2023 19:24 0,7 C 0,0 C -2,2 C 94 % 1008,4 hPa 0,0 l/m 0 min 0 min 0 W/m 0,0 km/h (0 Bft) 97,87 %
19.01.2023 19:26 0,6 C -0,6 C -2,8 C 94 % 1008,4 hPa 0,0 l/m 0 min 0 min 0 W/m 3,2 km/h (1 Bft) 95,74 %
19.01.2023 19:28 0,6 C -0,6 C -2,8 C 94 % 1008,4 hPa 0,0 l/m 0 min 0 min 0 W/m 0,0 km/h (0 Bft) 95,74 %
19.01.2023 19:30 0,6 C -0,6 C -2,8 C 94 % 1008,4 hPa 0,0 l/m 0 min 0 min 0 W/m 3,2 km/h (1 Bft) 97,87 %
19.01.2023 19:32 0,6 C -0,6 C -2,8 C 94 % 1008,4 hPa 0,0 l/m 0 min 0 min 0 W/m 0,0 km/h (0 Bft) 97,87 %
19.01.2023 19:34 0,6 C -0,6 C -2,8 C 94 % 1008,5 hPa 0,0 l/m 0 min 0 min 0 W/m 0,0 km/h (0 Bft) 91,49 %
19.01.2023 19:36 0,6 C -0,6 C -2,8 C 95 % 1008,5 hPa 0,0 l/m 0 min 0 min 0 W/m 0,0 km/h (0 Bft) 19,05 %
19.01.2023 19:38 0,6 C -0,6 C -2,8 C 95 % 1008,6 hPa 0,0 l/m 0 min 0 min 0 W/m 3,2 km/h (1 Bft) 97,87 %
19.01.2023 19:40 0,6 C -0,6 C -2,8 C 95 % 1008,5 hPa 0,0 l/m 0 min 0 min 0 W/m 0,0 km/h (0 Bft) 95,74 %
19.01.2023 19:42 0,6 C -0,6 C -2,8 C 95 % 1008,5 hPa 0,0 l/m 0 min 0 min 0 W/m 0,0 km/h (0 Bft) 97,87 %
19.01.2023 19:44 0,6 C -0,6 C -2,8 C 95 % 1008,5 hPa 0,0 l/m 0 min 0 min 0 W/m 0,0 km/h (0 Bft) 95,74 %
19.01.2023 19:46 0,6 C -0,6 C -2,8 C 95 % 1008,5 hPa 0,0 l/m 0 min 0 min 0 W/m 3,2 km/h (1 Bft) 97,87 %
19.01.2023 19:48 0,6 C -0,6 C -2,8 C 95 % 1008,6 hPa 0,0 l/m 0 min 0 min 0 W/m 0,0 km/h (0 Bft) 97,87 %
19.01.2023 19:50 0,6 C -0,6 C -2,8 C 94 % 1008,6 hPa 0,0 l/m 0 min 0 min 0 W/m 0,0 km/h (0 Bft) 97,83 %
19.01.2023 19:52 0,6 C -0,6 C -2,8 C 94 % 1008,6 hPa 0,0 l/m 0 min 0 min 0 W/m 0,0 km/h (0 Bft) 95,74 %
19.01.2023 19:54 0,6 C -0,6 C -2,8 C 95 % 1008,6 hPa 0,0 l/m 0 min 0 min 0 W/m 0,0 km/h (0 Bft) 95,74 %
19.01.2023 19:56 0,5 C -0,6 C -2,8 C 95 % 1008,6 hPa 0,0 l/m 0 min 0 min 0 W/m 0,0 km/h (0 Bft) 95,74 %
19.01.2023 19:58 0,5 C -0,6 C -2,8 C 95 % 1008,7 hPa 0,0 l/m 0 min 0 min 0 W/m 0,0 km/h (0 Bft) 95,74 %
19.01.2023 20:00 0,4 C -1,1 C -2,8 C 95 % 1008,6 hPa 0,0 l/m 0 min 0 min 0 W/m 0,0 km/h (0 Bft) 93,62 %
19.01.2023 20:02 0,4 C -1,1 C -3,3 C 95 % 1008,6 hPa 0,0 l/m 0 min 0 min 0 W/m 0,0 km/h (0 Bft) 97,87 %
19.01.2023 20:04 0,4 C -1,1 C -3,3 C 95 % 1008,6 hPa 0,0 l/m 0 min 0 min 0 W/m 0,0 km/h (0 Bft) 95,65 %
19.01.2023 20:06 0,4 C -1,1 C -3,3 C 95 % 1008,6 hPa 0,0 l/m 0 min 0 min 0 W/m 0,0 km/h (0 Bft) 97,87 %
19.01.2023 20:08 0,3 C -1,1 C -3,3 C 95 % 1008,7 hPa 0,0 l/m 0 min 0 min 0 W/m 0,0 km/h (0 Bft) 95,74 %
19.01.2023 20:10 0,3 C -1,1 C -3,3 C 95 % 1008,6 hPa 0,0 l/m 0 min 0 min 0 W/m 0,0 km/h (0 Bft) 97,87 %
19.01.2023 20:12 0,3 C -1,1 C -3,3 C 95 % 1008,6 hPa 0,0 l/m 0 min 0 min 0 W/m 0,0 km/h (0 Bft) 97,87 %
19.01.2023 20:14 0,3 C -1,1 C -3,3 C 95 % 1008,7 hPa 0,0 l/m 0 min 0 min 0 W/m 0,0 km/h (0 Bft) 97,87 %
19.01.2023 20:16 0,2 C -1,1 C -3,3 C 95 % 1008,6 hPa 0,0 l/m 0 min 0 min 0 W/m 0,0 km/h (0 Bft) 95,74 %
19.01.2023 20:18 0,2 C -1,1 C -3,3 C 94 % 1008,6 hPa 0,0 l/m 0 min 0 min 0 W/m 0,0 km/h (0 Bft) 93,48 %
19.01.2023 20:20 0,2 C -1,1 C -3,3 C 95 % 1008,7 hPa 0,0 l/m 0 min 0 min 0 W/m 0,0 km/h (0 Bft) 97,87 %
19.01.2023 20:22 0,2 C -1,1 C -3,3 C 95 % 1008,7 hPa 0,0 l/m 0 min 0 min 0 W/m 0,0 km/h (0 Bft) 95,74 %
19.01.2023 20:24 0,2 C -1,1 C -3,3 C 95 % 1008,7 hPa 0,0 l/m 0 min 0 min 0 W/m 0,0 km/h (0 Bft) 95,74 %
19.01.2023 20:26 0,1 C -1,1 C -3,3 C 95 % 1008,7 hPa 0,0 l/m 0 min 0 min 0 W/m 0,0 km/h (0 Bft) 97,87 %
19.01.2023 20:28 0,1 C -1,1 C -3,3 C 95 % 1008,7 hPa 0,0 l/m 0 min 0 min 0 W/m 0,0 km/h (0 Bft) 100,00 %
19.01.2023 20:30 0,1 C -1,1 C -3,3 C 95 % 1008,7 hPa 0,0 l/m 0 min 0 min 0 W/m 0,0 km/h (0 Bft) 100,00 %
19.01.2023 20:32 0,1 C -1,1 C -3,3 C 95 % 1008,7 hPa 0,0 l/m 0 min 0 min 0 W/m 0,0 km/h (0 Bft) 100,00 %
19.01.2023 20:34 0,1 C -1,1 C -3,3 C 95 % 1008,7 hPa 0,0 l/m 0 min 0 min 0 W/m 0,0 km/h (0 Bft) 95,74 %
19.01.2023 20:36 0,1 C -1,1 C -2,8 C 95 % 1008,7 hPa 0,0 l/m 0 min 0 min 0 W/m 3,2 km/h (1 Bft) 97,87 %
19.01.2023 20:38 0,1 C -1,1 C -2,8 C 95 % 1008,7 hPa 0,0 l/m 0 min 0 min 0 W/m 0,0 km/h (0 Bft) 97,87 %
19.01.2023 20:40 0,1 C -1,1 C -2,8 C 95 % 1008,7 hPa 0,0 l/m 0 min 0 min 0 W/m 3,2 km/h (1 Bft) 100,00 %
19.01.2023 20:42 0,1 C -1,1 C -2,8 C 95 % 1008,7 hPa 0,0 l/m 0 min 0 min 0 W/m 3,2 km/h (1 Bft) 97,87 %
19.01.2023 20:44 0,1 C -0,6 C -2,8 C 95 % 1008,8 hPa 0,0 l/m 0 min 0 min 0 W/m 3,2 km/h (1 Bft) 100,00 %
19.01.2023 20:46 0,2 C -0,6 C -2,8 C 95 % 1008,8 hPa 0,0 l/m 0 min 0 min 0 W/m 3,2 km/h (1 Bft) 97,87 %
19.01.2023 20:48 0,2 C -0,6 C -2,8 C 95 % 1008,9 hPa 0,0 l/m 0 min 0 min 0 W/m 3,2 km/h (1 Bft) 97,87 %
19.01.2023 20:50 0,2 C -0,6 C -2,8 C 95 % 1008,8 hPa 0,0 l/m 0 min 0 min 0 W/m 3,2 km/h (1 Bft) 97,87 %
19.01.2023 20:52 0,2 C -0,6 C -2,8 C 95 % 1008,9 hPa 0,0 l/m 0 min 0 min 0 W/m 0,0 km/h (0 Bft) 97,87 %
19.01.2023 20:54 0,2 C -0,6 C -2,8 C 95 % 1008,9 hPa 0,0 l/m 0 min 0 min 0 W/m 6,4 km/h (2 Bft) 97,87 %
19.01.2023 20:56 0,2 C -0,6 C -2,8 C 95 % 1008,9 hPa 0,0 l/m 0 min 0 min 0 W/m 6,4 km/h (2 Bft) 97,87 %
19.01.2023 20:58 0,2 C -0,6 C -2,8 C 95 % 1009,0 hPa 0,0 l/m 0 min 0 min 0 W/m 3,2 km/h (1 Bft) 97,87 %
19.01.2023 21:00 0,2 C -0,6 C -2,8 C 95 % 1009,0 hPa 0,0 l/m 0 min 0 min 0 W/m 6,4 km/h (2 Bft) 95,65 %
19.01.2023 21:02 0,2 C -0,6 C -2,8 C 95 % 1009,0 hPa 0,0 l/m 0 min 0 min 0 W/m 6,4 km/h (2 Bft) 97,87 %
19.01.2023 21:04 0,2 C -0,6 C -2,8 C 95 % 1009,0 hPa 0,0 l/m 0 min 0 min 0 W/m 3,2 km/h (1 Bft) 95,74 %
19.01.2023 21:06 0,3 C -0,6 C -2,8 C 95 % 1009,0 hPa 0,0 l/m 0 min 0 min 0 W/m 3,2 km/h (1 Bft) 97,87 %
19.01.2023 21:08 0,3 C -0,6 C -2,8 C 95 % 1009,0 hPa 0,0 l/m 0 min 0 min 0 W/m 3,2 km/h (1 Bft) 97,87 %
19.01.2023 21:10 0,3 C -0,6 C -2,8 C 95 % 1009,0 hPa 0,0 l/m 0 min 0 min 0 W/m 3,2 km/h (1 Bft) 97,87 %
19.01.2023 21:12 0,3 C -0,6 C -2,8 C 95 % 1009,1 hPa 0,0 l/m 0 min 0 min 0 W/m 3,2 km/h (1 Bft) 97,83 %
19.01.2023 21:14 0,3 C -0,6 C -2,8 C 95 % 1009,0 hPa 0,0 l/m 0 min 0 min 0 W/m 0,0 km/h (0 Bft) 97,87 %
19.01.2023 21:16 0,3 C -0,6 C -2,8 C 95 % 1009,1 hPa 0,0 l/m 0 min 0 min 0 W/m 3,2 km/h (1 Bft) 95,74 %
19.01.2023 21:18 0,3 C -0,6 C -2,8 C 95 % 1009,1 hPa 0,0 l/m 0 min 0 min 0 W/m 3,2 km/h (1 Bft) 97,87 %
19.01.2023 21:20 0,3 C -0,6 C -2,8 C 95 % 1009,1 hPa 0,0 l/m 0 min 0 min 0 W/m 6,4 km/h (2 Bft) 97,87 %
19.01.2023 21:22 0,3 C -0,6 C -2,8 C 96 % 1009,1 hPa 0,0 l/m 0 min 0 min 0 W/m 3,2 km/h (1 Bft) 100,00 %
19.01.2023 21:24 0,3 C -0,6 C -2,8 C 96 % 1009,1 hPa 0,0 l/m 0 min 0 min 0 W/m 9,7 km/h (2 Bft) 100,00 %
19.01.2023 21:26 0,3 C -0,6 C -2,8 C 96 % 1009,2 hPa 0,0 l/m 0 min 0 min 0 W/m 6,4 km/h (2 Bft) 95,65 %
19.01.2023 21:28 0,3 C -0,6 C -2,8 C 96 % 1009,1 hPa 0,0 l/m 0 min 0 min 0 W/m 3,2 km/h (1 Bft) 100,00 %
19.01.2023 21:30 0,3 C -0,6 C -2,8 C 96 % 1009,2 hPa 0,0 l/m 0 min 0 min 0 W/m 0,0 km/h (0 Bft) 100,00 %
19.01.2023 21:32 0,3 C -0,6 C -2,8 C 96 % 1009,2 hPa 0,0 l/m 0 min 0 min 0 W/m 3,2 km/h (1 Bft) 100,00 %
19.01.2023 21:34 0,3 C -0,6 C -2,8 C 96 % 1009,2 hPa 0,0 l/m 0 min 0 min 0 W/m 9,7 km/h (2 Bft) 97,87 %
19.01.2023 21:36 0,3 C -0,6 C -2,8 C 96 % 1009,2 hPa 0,0 l/m 0 min 0 min 0 W/m 0,0 km/h (0 Bft) 95,74 %
19.01.2023 21:38 0,3 C -0,6 C -2,8 C 96 % 1009,3 hPa 0,0 l/m 0 min 0 min 0 W/m 6,4 km/h (2 Bft) 100,00 %
19.01.2023 21:40 0,3 C -0,6 C -2,8 C 96 % 1009,3 hPa 0,0 l/m 0 min 0 min 0 W/m 3,2 km/h (1 Bft) 97,83 %
19.01.2023 21:42 0,3 C -0,6 C -2,8 C 96 % 1009,3 hPa 0,0 l/m 0 min 0 min 0 W/m 3,2 km/h (1 Bft) 97,87 %
19.01.2023 21:44 0,3 C -0,6 C -2,8 C 96 % 1009,4 hPa 0,0 l/m 0 min 0 min 0 W/m 6,4 km/h (2 Bft) 95,74 %
19.01.2023 21:46 0,3 C -0,6 C -2,8 C 96 % 1009,4 hPa 0,0 l/m 0 min 0 min 0 W/m 6,4 km/h (2 Bft) 95,74 %
19.01.2023 21:48 0,3 C -0,6 C -2,8 C 96 % 1009,4 hPa 0,0 l/m 0 min 0 min 0 W/m 0,0 km/h (0 Bft) 97,87 %
19.01.2023 21:50 0,3 C -0,6 C -2,8 C 96 % 1009,4 hPa 0,0 l/m 0 min 0 min 0 W/m 3,2 km/h (1 Bft) 97,87 %
19.01.2023 21:52 0,2 C -0,6 C -2,8 C 96 % 1009,4 hPa 0,0 l/m 0 min 0 min 0 W/m 3,2 km/h (1 Bft) 97,87 %
19.01.2023 21:54 0,2 C -1,1 C -2,8 C 96 % 1009,5 hPa 0,0 l/m 0 min 0 min 0 W/m 3,2 km/h (1 Bft) 97,83 %
19.01.2023 21:56 0,2 C -0,6 C -2,8 C 96 % 1009,5 hPa 0,0 l/m 0 min 0 min 0 W/m 3,2 km/h (1 Bft) 97,87 %
19.01.2023 21:58 0,2 C -0,6 C -2,8 C 96 % 1009,6 hPa 0,0 l/m 0 min 0 min 0 W/m 3,2 km/h (1 Bft) 97,87 %
19.01.2023 22:00 0,2 C -0,6 C -2,8 C 96 % 1009,5 hPa 0,0 l/m 0 min 0 min 0 W/m 3,2 km/h (1 Bft) 93,62 %
19.01.2023 22:02 0,2 C -0,6 C -2,8 C 96 % 1009,6 hPa 0,0 l/m 0 min 0 min 0 W/m 3,2 km/h (1 Bft) 97,87 %
19.01.2023 22:04 0,2 C -0,6 C -2,8 C 96 % 1009,6 hPa 0,0 l/m 0 min 0 min 0 W/m 3,2 km/h (1 Bft) 97,87 %
19.01.2023 22:06 0,2 C -1,1 C -2,8 C 96 % 1009,7 hPa 0,0 l/m 0 min 0 min 0 W/m 3,2 km/h (1 Bft) 95,74 %
19.01.2023 22:08 0,2 C -0,6 C -2,8 C 96 % 1009,7 hPa 0,0 l/m 0 min 0 min 0 W/m 3,2 km/h (1 Bft) 97,83 %
19.01.2023 22:10 0,2 C -1,1 C -2,8 C 96 % 1009,7 hPa 0,0 l/m 0 min 0 min 0 W/m 3,2 km/h (1 Bft) 100,00 %
19.01.2023 22:12 0,1 C -1,1 C -2,8 C 96 % 1009,7 hPa 0,0 l/m 0 min 0 min 0 W/m 3,2 km/h (1 Bft) 97,87 %
19.01.2023 22:14 0,1 C -0,6 C -2,8 C 96 % 1009,7 hPa 0,0 l/m 0 min 0 min 0 W/m 6,4 km/h (2 Bft) 100,00 %
19.01.2023 22:16 0,1 C -1,1 C -2,8 C 96 % 1009,8 hPa 0,0 l/m 0 min 0 min 0 W/m 3,2 km/h (1 Bft) 100,00 %
19.01.2023 22:18 0,1 C -1,1 C -2,8 C 96 % 1009,8 hPa 0,0 l/m 0 min 0 min 0 W/m 0,0 km/h (0 Bft) 78,72 %
19.01.2023 22:20 0,1 C -1,1 C -2,8 C 96 % 1009,8 hPa 0,0 l/m 0 min 0 min 0 W/m 3,2 km/h (1 Bft) 73,33 %
19.01.2023 22:22 0,1 C -1,1 C -2,8 C 96 % 1009,9 hPa 0,0 l/m 0 min 0 min 0 W/m 3,2 km/h (1 Bft) 97,83 %
19.01.2023 22:24 0,1 C -1,1 C -2,8 C 96 % 1009,9 hPa 0,0 l/m 0 min 0 min 0 W/m 3,2 km/h (1 Bft) 95,74 %
19.01.2023 22:26 0,1 C -1,1 C -2,8 C 96 % 1010,0 hPa 0,0 l/m 0 min 0 min 0 W/m 3,2 km/h (1 Bft) 97,87 %
19.01.2023 22:28 0,1 C -1,1 C -2,8 C 96 % 1010,0 hPa 0,0 l/m 0 min 0 min 0 W/m 6,4 km/h (2 Bft) 100,00 %
19.01.2023 22:30 0,1 C -1,1 C -2,8 C 96 % 1010,0 hPa 0,0 l/m 0 min 0 min 0 W/m 3,2 km/h (1 Bft) 95,74 %
19.01.2023 22:32 0,0 C -1,1 C -2,8 C 96 % 1010,0 hPa 0,0 l/m 0 min 0 min 0 W/m 3,2 km/h (1 Bft) 97,87 %
19.01.2023 22:34 0,0 C -1,1 C -2,8 C 96 % 1010,1 hPa 0,0 l/m 0 min 0 min 0 W/m 3,2 km/h (1 Bft) 97,87 %
19.01.2023 22:36 0,0 C -1,1 C -2,8 C 96 % 1010,1 hPa 0,0 l/m 0 min 0 min 0 W/m 3,2 km/h (1 Bft) 95,65 %
19.01.2023 22:38 0,1 C -1,1 C -2,8 C 96 % 1010,1 hPa 0,0 l/m 0 min 0 min 0 W/m 6,4 km/h (2 Bft) 93,62 %
19.01.2023 22:40 0,1 C -1,1 C -2,8 C 96 % 1010,2 hPa 0,0 l/m 0 min 0 min 0 W/m 3,2 km/h (1 Bft) 97,87 %
19.01.2023 22:42 0,1 C -1,1 C -2,8 C 96 % 1010,2 hPa 0,0 l/m 0 min 0 min 0 W/m 3,2 km/h (1 Bft) 97,14 %
19.01.2023 22:44 0,1 C -1,1 C -2,8 C 96 % 1010,2 hPa 0,0 l/m 0 min 0 min 0 W/m 6,4 km/h (2 Bft) 95,74 %
19.01.2023 22:46 0,1 C -1,1 C -2,8 C 96 % 1010,3 hPa 0,0 l/m 0 min 0 min 0 W/m 3,2 km/h (1 Bft) 98,31 %
19.01.2023 22:48 0,0 C -1,1 C -2,8 C 96 % 1010,2 hPa 0,0 l/m 0 min 0 min 0 W/m 3,2 km/h (1 Bft) 91,43 %
19.01.2023 22:50 0,0 C -1,1 C -2,8 C 96 % 1010,3 hPa 0,0 l/m 0 min 0 min 0 W/m 6,4 km/h (2 Bft) 93,62 %
19.01.2023 22:52 0,0 C -1,1 C -2,8 C 96 % 1010,3 hPa 0,0 l/m 0 min 0 min 0 W/m 3,2 km/h (1 Bft) 93,62 %
19.01.2023 22:54 0,1 C -1,1 C -2,8 C 96 % 1010,3 hPa 0,0 l/m 0 min 0 min 0 W/m 6,4 km/h (2 Bft) 91,67 %
19.01.2023 22:56 0,1 C -0,6 C -2,8 C 96 % 1010,3 hPa 0,0 l/m 0 min 0 min 0 W/m 3,2 km/h (1 Bft) 95,74 %
19.01.2023 22:58 0,1 C -0,6 C -2,8 C 96 % 1010,3 hPa 0,0 l/m 0 min 0 min 0 W/m 6,4 km/h (2 Bft) 93,62 %
19.01.2023 23:00 0,1 C -0,6 C -2,8 C 96 % 1010,4 hPa 0,0 l/m 0 min 0 min 0 W/m 6,4 km/h (2 Bft) 95,74 %
19.01.2023 23:02 0,1 C -0,6 C -2,8 C 96 % 1010,3 hPa 0,0 l/m 0 min 0 min 0 W/m 6,4 km/h (2 Bft) 93,62 %
19.01.2023 23:04 0,1 C -0,6 C -2,8 C 96 % 1010,3 hPa 0,0 l/m 0 min 0 min 0 W/m 3,2 km/h (1 Bft) 93,62 %
19.01.2023 23:06 0,1 C -1,1 C -2,8 C 96 % 1010,4 hPa 0,0 l/m 0 min 0 min 0 W/m 0,0 km/h (0 Bft) 98,28 %
19.01.2023 23:08 0,1 C -1,1 C -2,8 C 96 % 1010,4 hPa 0,0 l/m 0 min 0 min 0 W/m 6,4 km/h (2 Bft) 94,29 %
19.01.2023 23:10 0,1 C -1,1 C -2,8 C 96 % 1010,4 hPa 0,0 l/m 0 min 0 min 0 W/m 0,0 km/h (0 Bft) 95,74 %
19.01.2023 23:12 0,1 C -1,1 C -2,8 C 96 % 1010,4 hPa 0,0 l/m 0 min 0 min 0 W/m 0,0 km/h (0 Bft) 95,74 %
19.01.2023 23:14 0,1 C -1,1 C -2,8 C 96 % 1010,5 hPa 0,0 l/m 0 min 0 min 0 W/m 0,0 km/h (0 Bft) 93,62 %
19.01.2023 23:16 0,1 C -1,1 C -2,8 C 96 % 1010,5 hPa 0,0 l/m 0 min 0 min 0 W/m 0,0 km/h (0 Bft) 95,74 %
19.01.2023 23:18 0,1 C -0,6 C -2,8 C 96 % 1010,5 hPa 0,0 l/m 0 min 0 min 0 W/m 0,0 km/h (0 Bft) 95,74 %
19.01.2023 23:20 0,1 C -0,6 C -2,8 C 96 % 1010,5 hPa 0,0 l/m 0 min 0 min 0 W/m 0,0 km/h (0 Bft) 93,48 %
19.01.2023 23:22 0,1 C -1,1 C -2,8 C 96 % 1010,5 hPa 0,0 l/m 0 min 0 min 0 W/m 0,0 km/h (0 Bft) 95,74 %
19.01.2023 23:24 0,1 C -1,1 C -2,8 C 96 % 1010,5 hPa 0,0 l/m 0 min 0 min 0 W/m 0,0 km/h (0 Bft) 95,74 %
19.01.2023 23:26 0,1 C -1,1 C -2,8 C 96 % 1010,5 hPa 0,0 l/m 0 min 0 min 0 W/m 0,0 km/h (0 Bft) 97,87 %
19.01.2023 23:28 0,0 C -1,1 C -2,8 C 96 % 1010,5 hPa 0,0 l/m 0 min 0 min 0 W/m 0,0 km/h (0 Bft) 97,87 %
19.01.2023 23:30 0,0 C -1,1 C -2,8 C 96 % 1010,5 hPa 0,0 l/m 0 min 0 min 0 W/m 0,0 km/h (0 Bft) 97,87 %
19.01.2023 23:32 0,0 C -1,1 C -2,8 C 96 % 1010,6 hPa 0,0 l/m 0 min 0 min 0 W/m 0,0 km/h (0 Bft) 97,87 %
19.01.2023 23:34 -0,1 C -1,1 C -2,8 C 96 % 1010,6 hPa 0,0 l/m 0 min 0 min 0 W/m 0,0 km/h (0 Bft) 95,65 %
19.01.2023 23:36 -0,1 C -1,1 C -2,8 C 96 % 1010,6 hPa 0,0 l/m 0 min 0 min 0 W/m 0,0 km/h (0 Bft) 97,87 %
19.01.2023 23:38 -0,1 C -1,1 C -2,8 C 96 % 1010,6 hPa 0,0 l/m 0 min 0 min 0 W/m 0,0 km/h (0 Bft) 97,87 %
19.01.2023 23:40 -0,2 C -1,1 C -2,8 C 96 % 1010,7 hPa 0,0 l/m 0 min 0 min 0 W/m 0,0 km/h (0 Bft) 97,87 %
19.01.2023 23:42 -0,2 C -1,1 C -2,8 C 96 % 1010,7 hPa 0,0 l/m 0 min 0 min 0 W/m 0,0 km/h (0 Bft) 97,87 %
19.01.2023 23:44 -0,2 C -1,1 C -2,8 C 96 % 1010,7 hPa 0,0 l/m 0 min 0 min 0 W/m 3,2 km/h (1 Bft) 95,74 %
19.01.2023 23:46 -0,2 C -1,1 C -2,8 C 96 % 1010,7 hPa 0,0 l/m 0 min 0 min 0 W/m 3,2 km/h (1 Bft) 97,87 %
19.01.2023 23:48 -0,2 C -1,1 C -2,8 C 96 % 1010,7 hPa 0,0 l/m 0 min 0 min 0 W/m 6,4 km/h (2 Bft) 97,83 %
19.01.2023 23:50 -0,2 C -1,1 C -2,8 C 96 % 1010,7 hPa 0,0 l/m 0 min 0 min 0 W/m 3,2 km/h (1 Bft) 95,74 %
19.01.2023 23:52 -0,2 C -1,1 C -2,8 C 96 % 1010,7 hPa 0,0 l/m 0 min 0 min 0 W/m 3,2 km/h (1 Bft) 97,87 %
19.01.2023 23:54 -0,2 C -1,1 C -2,8 C 96 % 1010,7 hPa 0,0 l/m 0 min 0 min 0 W/m 3,2 km/h (1 Bft) 97,87 %
19.01.2023 23:56 -0,3 C -1,1 C -2,8 C 96 % 1010,7 hPa 0,0 l/m 0 min 0 min 0 W/m 3,2 km/h (1 Bft) 95,74 %
19.01.2023 23:58 -0,3 C -1,1 C -3,3 C 96 % 1010,8 hPa 0,0 l/m 0 min 0 min 0 W/m 3,2 km/h (1 Bft) 97,87 %
_ Min-Zeit 23:56 20:00 05:34 00:00 00:04 - - - - 17:50 01:44
Minimum _ -0,3 C -1,1 C -3,3 C 91 % 1002,2 hPa - - - - 0,0 km/h (0 Bft) 10,00 %
_ Max-Zeit 14:58 13:18 12:58 07:26 23:58 05:10 12:54 04:32 13:14 04:40 00:00
Maximum _ 3,2 C 7,2 C 0,0 C 97 % 1010,8 hPa 0,2 l/m 2 min 2 min 307 W/m 35,4 km/h
S (5 Bft)
100,00 %
Durchschnitt _ 1,2 C 0,7 C -2,0 C 95 % 1005,9 hPa #3,2 l/m #42 min. #3:24 h 74 W/m 12,4 km/h (3 Bft) 96,37 %
© 2023 W. Hausmann